[{"header": {"dx": 0.06612293990616946, "dy": 0.0552356325346848, "nx": 98, "ny": 59, "la1": 35.046912555036876, "la2": 31.78801023549047, "lo1": -121.43107172385933, "lo2": -114.95102361305473, "refTime": "2026041016", "parameterCategory": 1, "parameterNumber": 2}, "data": [2.89, -0.0, -2.09, -2.09, -0.0, -2.09, -6.6, -8.18, -5.48, -0.0, 3.36, 3.68, -0.0, -0.0, -0.0, -0.0, 3.39, 3.39, 4.8, 4.6, 4.2, 6.64, 7.44, 8.48, 8.48, 9.11, 9.11, 7.81, 8.48, 8.0, 9.39, -4.0, -4.71, -3.72, -2.12, 0.0, 0.0, 0.0, 0.0, 0.0, 0.0, 6.95, 10.4, 12.3, 14.03, 15.18, 17.02, 18.66, 18.33, 15.71, 11.6, 9.66, 9.08, 9.42, 9.17, 9.69, 10.02, 10.99, 10.99, 11.5, 11.5, 11.72, 11.33, 11.33, 11.33, 11.99, 12.79, 12.93, 13.15, 12.8, 13.01, 12.09, 11.54, 11.76, 12.2, 12.37, 12.48, 13.41, 13.86, 12.39, 10.08, 9.54, 8.91, 6.32, 4.0, 6.32, 7.07, 7.89, 7.95, 8.82, 10.4, 10.43, 10.41, 10.41, 10.81, 10.99, 9.77, 9.45, 2.81, -0.0, -2.09, -2.09, -0.0, -2.43, -6.8, -6.8, -5.48, -0.0, 2.63, 4.1, -0.0, -0.0, -0.0, -0.0, 3.25, -0.0, -0.0, 3.11, 4.6, 7.27, 6.64, 8.0, 7.2, 8.06, 8.48, 8.48, 8.48, 8.0, 7.2, 8.49, 0.0, 0.0, 0.0, -2.26, -2.54, -3.6, 0.0, 0.0, 6.95, 8.22, 12.3, 13.28, 15.9, 17.74, 19.67, 18.63, 15.91, 11.64, 8.82, 9.3, 9.3, 9.17, 9.77, 10.23, 10.99, 11.77, 11.77, 12.21, 11.99, 11.33, 11.33, 11.33, 11.33, 11.6, 12.38, 12.52, 12.89, 12.58, 13.44, 12.53, 12.68, 12.83, 12.81, 12.93, 12.48, 13.41, 13.86, 12.39, 10.08, 9.54, 8.91, 6.32, 4.0, 6.32, 7.07, 7.89, 7.95, 8.82, 10.4, 10.43, 10.41, 10.41, 10.81, 10.99, 9.77, 9.45, 2.81, -0.0, -2.09, -0.0, -0.0, -2.43, -4.81, -7.82, -5.64, -0.0, 2.45, 2.02, -0.0, -0.0, -0.0, -0.0, -0.0, -0.0, 3.53, 5.0, 5.46, 7.59, 7.9, 7.27, 6.32, 7.6, 8.94, 8.94, 8.94, 8.0, 5.69, 5.95, 6.79, 7.6, 4.74, 0.0, -2.54, -2.83, 0.0, 0.0, 5.2, 13.15, 15.78, 17.64, 19.67, 20.12, 19.52, 17.16, 10.91, 8.15, 8.94, 9.3, 10.04, 10.41, 10.73, 11.16, 11.99, 12.21, 12.21, 12.21, 12.21, 12.04, 11.33, 11.33, 11.33, 11.6, 11.97, 12.1, 12.21, 12.53, 13.01, 13.59, 13.38, 13.41, 12.96, 12.52, 12.52, 14.3, 13.67, 13.01, 9.89, 8.91, 8.0, 4.96, 0.0, 0.0, 3.6, 6.63, 7.58, 10.0, 12.03, 11.76, 10.73, 10.73, 10.18, 10.0, 9.21, 9.11, 2.81, -0.0, -0.0, -0.0, -0.0, -2.43, -4.81, -7.82, -5.48, -2.72, -0.0, 2.6, -0.0, -0.0, -0.0, -0.0, -0.0, -0.0, 3.82, 6.2, 6.2, 7.27, 10.0, 9.67, 7.59, 8.8, 8.49, 8.94, 6.32, 8.49, 3.8, 2.17, 4.6, 6.32, 8.48, 9.39, 9.83, 0.0, 0.0, 0.0, 16.09, 18.78, 19.22, 18.08, 17.2, 15.9, 13.97, 9.7, 8.37, 9.48, 9.67, 10.94, 10.94, 10.94, 10.94, 12.04, 12.04, 12.6, 12.6, 12.6, 12.18, 12.04, 10.94, 10.61, 10.41, 10.73, 11.38, 11.2, 12.29, 13.07, 14.31, 14.62, 14.75, 12.93, 11.93, 11.93, 11.93, 13.37, 15.39, 11.99, 8.34, 8.18, 6.32, 3.8, 0.0, 0.0, 3.32, 6.01, 8.03, 11.66, 12.73, 12.13, 10.73, 9.4, 9.2, 9.33, 9.16, 8.73, 2.81, -0.0, -0.0, -0.0, -0.0, -2.89, -5.64, -7.82, -5.48, -3.36, -0.0, 2.6, -0.0, -0.0, -0.0, -0.0, -0.0, -0.0, -0.0, 2.93, 3.96, 4.8, 7.59, 10.4, 8.93, 10.0, 8.8, 9.39, 9.39, -0.0, -0.0, -0.0, 2.82, 6.97, 8.94, 10.0, 9.3, 11.6, -0.0, -0.0, 8.6, 14.51, 12.16, 12.72, 12.3, 11.45, 10.4, 9.7, 10.09, 10.8, 11.44, 11.44, 11.44, 11.44, 11.44, 12.04, 12.18, 12.6, 12.72, 12.94, 12.42, 11.85, 10.19, 9.16, 9.42, 9.88, 10.25, 10.56, 11.42, 12.62, 14.23, 15.55, 15.93, 15.2, 12.27, 10.5, 10.79, 11.44, 13.96, 12.66, 7.47, 6.64, 5.44, 2.69, 0.0, 0.0, 4.44, 6.83, 9.48, 11.5, 12.05, 11.09, 9.76, 8.93, 8.79, 9.16, 8.77, 8.99, 2.81, -0.0, -0.0, -0.0, -0.0, -2.89, -5.64, -7.59, -5.48, -3.36, -0.0, 3.25, -0.0, -0.0, -0.0, -0.0, -0.0, -0.0, -0.0, -0.0, -0.0, 2.93, 4.24, 9.17, 8.53, 8.53, 8.22, 5.0, 4.8, 4.8, -0.0, 6.64, 8.8, 11.45, 11.5, 11.16, 10.79, 11.88, 5.51, -8.4, -0.0, 3.47, 7.82, 10.41, 10.41, 9.62, 9.82, 9.82, 10.8, 10.8, 10.88, 11.3, 11.3, 11.87, 12.3, 12.42, 12.51, 12.51, 13.01, 12.94, 12.3, 9.62, 8.53, 7.85, 8.24, 8.85, 9.36, 10.12, 11.16, 12.03, 13.52, 14.53, 14.73, 16.05, 15.65, 13.44, 9.86, 9.86, 9.89, 10.48, 5.46, 4.74, 3.45, 1.65, 0.89, 1.6, 5.0, 8.72, 10.11, 10.27, 10.58, 9.69, 9.17, 7.07, 9.03, 8.99, 9.75, 10.17, 5.31, -0.0, -0.0, -0.0, -0.0, -2.89, -5.48, -7.59, -5.31, -2.72, -0.0, 2.39, -0.0, -0.0, -0.0, -0.0, -0.0, -0.0, -0.0, -0.0, -0.0, -0.0, 3.58, 3.79, 8.43, 8.18, 4.81, 4.52, 7.19, 5.95, 7.59, 8.4, 9.33, 9.33, 10.4, 10.82, 11.17, 11.09, 6.2, -6.0, -3.47, -0.0, 6.0, 8.05, 9.22, 8.44, 8.85, 9.88, 10.24, 11.2, 10.8, 10.88, 11.87, 11.87, 12.27, 12.75, 12.75, 12.91, 12.92, 12.71, 11.2, 7.54, 6.45, 6.4, 6.7, 8.32, 10.47, 10.62, 10.94, 11.99, 12.98, 12.87, 12.98, 15.47, 16.35, 16.54, 13.75, 9.75, 8.8, 8.0, 4.74, 4.07, 3.25, 2.49, 2.41, 3.11, 6.05, 8.46, 10.02, 9.32, 8.01, 8.85, 7.07, 7.6, 8.0, 8.3, 10.32, 10.2, 5.15, 2.81, -0.0, -0.0, -0.0, -2.89, -5.48, -5.48, -7.36, -4.98, -0.0, 1.93, -0.0, -0.0, -0.0, -0.0, -0.0, -0.0, -0.0, -0.0, -0.0, -0.0, -0.0, 3.79, 6.8, 6.8, 7.0, 5.09, 10.43, 9.48, 8.53, 8.53, 8.85, 8.85, 7.9, 8.85, 11.12, 9.3, 6.45, -0.0, -4.1, -0.0, -0.0, 4.12, 7.2, 7.93, 7.14, 9.02, 9.53, 10.79, 10.4, 11.03, 11.87, 12.27, 12.45, 12.52, 12.07, 12.07, 12.07, 11.95, 8.22, 4.15, 4.4, 5.2, 6.7, 9.8, 11.69, 11.38, 11.45, 12.04, 13.01, 13.01, 13.75, 14.18, 15.16, 15.2, 14.75, 12.44, 11.87, 12.5, 10.39, 5.06, 3.76, 3.68, 2.93, 4.46, 5.73, 7.73, 8.15, 8.02, 6.86, 4.22, 5.37, 4.71, 7.07, 8.43, 10.4, 9.97, 2.72, 2.35, 2.81, 2.81, -0.0, -2.89, -5.48, -5.48, -7.36, -4.81, -2.28, -0.0, -0.0, -0.0, -0.0, -0.0, -0.0, -0.0, -0.0, -0.0, -0.0, -0.0, -0.0, -0.0, 3.14, 5.0, 4.4, 6.2, 13.99, 13.57, 9.8, 4.81, 4.81, 7.69, 8.85, 9.3, 7.9, 6.2, 2.49, -0.0, -4.1, -4.66, -0.0, -0.0, 2.82, 5.0, 7.82, 9.17, 9.3, 9.77, 10.91, 10.55, 11.56, 11.84, 12.07, 11.62, 11.4, 11.55, 11.62, 10.4, 3.53, 1.52, 2.49, 4.72, 8.31, 11.29, 12.39, 12.1, 11.76, 12.04, 12.94, 13.39, 14.3, 14.75, 14.28, 13.37, 11.58, 11.88, 13.44, 15.02, 13.23, 6.85, 4.13, 4.87, 3.91, 4.75, 5.8, 8.1, 7.13, 6.95, 4.47, 1.98, 0.0, 2.99, 6.45, 8.67, 10.43, 8.82, 2.72, 2.28, 2.35, 5.31, 2.89, -0.0, -5.48, -7.59, -7.36, -7.78, -7.51, -2.54, -0.0, -0.0, -0.0, -0.0, -0.0, -0.0, -0.0, -0.0, -0.0, -0.0, -0.0, -0.0, -0.0, -0.0, -0.0, 4.8, 13.19, 12.79, 6.6, -0.0, -0.0, 4.38, 8.53, 9.3, 7.59, -0.0, -0.0, -4.1, -4.1, -4.1, -0.0, -0.0, 4.6, 5.75, 8.22, 9.16, 10.23, 10.48, 9.77, 9.89, 9.97, 10.79, 11.4, 11.62, 11.51, 9.67, 11.62, -0.0, -0.0, 1.14, 2.82, 6.2, 8.78, 11.35, 12.39, 12.3, 11.96, 11.62, 12.94, 13.39, 14.23, 14.65, 14.06, 12.46, 10.92, 10.58, 11.27, 14.61, 15.59, 7.4, 5.45, 4.34, 4.96, 5.21, 6.31, 7.27, 8.23, 7.28, 5.37, 2.06, 1.32, 2.99, 6.01, 9.04, 9.76, 7.13, 2.72, 2.72, 2.35, 4.66, 4.66, -0.0, -2.89, -5.48, -8.58, -8.05, -9.17, -7.69, -3.36, -0.0, -0.0, -0.0, -0.0, 4.95, 8.68, 7.6, 5.51, -0.0, -0.0, -0.0, -0.0, -0.0, -0.0, -0.0, 5.8, 6.2, -0.0, -0.0, -0.0, -0.0, 6.2, 8.53, 3.68, -0.0, -2.93, -4.38, -0.0, -0.0, -0.0, -0.0, 3.39, 5.29, 7.59, 8.59, 9.48, 8.94, 8.22, 8.07, 7.64, 7.78, 7.59, 7.9, 8.22, 0.0, -10.8, -2.82, -0.0, 1.84, 3.65, 6.1, 8.46, 10.97, 11.57, 12.39, 12.14, 12.07, 12.37, 12.85, 14.03, 13.99, 13.25, 13.02, 11.6, 10.24, 10.94, 12.45, 14.75, 7.2, 0.0, 5.8, 5.72, 5.06, 6.45, 7.96, 8.34, 6.91, 6.52, 6.42, 3.8, 3.55, 6.53, 9.66, 8.42, 6.01, -0.0, 2.72, 2.81, 4.66, 4.66, 2.43, -0.0, -2.89, -5.31, -8.05, -10.73, -12.39, -10.43, -4.52, -0.0, 3.96, 6.94, 8.18, 11.38, 13.59, 11.7, 9.66, 8.68, 7.2, -0.0, -0.0, -0.0, 1.95, 3.53, -0.0, -0.0, -0.0, -0.0, -0.0, -0.0, -0.0, -0.0, -0.0, -0.0, -0.0, -0.0, -0.0, -0.0, -0.0, -0.0, 1.54, 3.98, 6.44, 5.52, 5.52, 5.21, 5.2, 5.72, 5.8, 5.25, 5.25, 6.98, 8.85, -5.6, -4.6, -0.0, 1.97, 3.58, 5.04, 5.67, 7.21, 8.46, 9.12, 9.8, 10.73, 11.85, 12.44, 12.58, 11.12, 11.6, 11.99, 10.79, 10.01, 11.2, 13.23, 13.86, 9.48, 0.0, 0.0, 5.52, 6.64, 7.28, 7.64, 7.58, 7.58, 7.47, 8.24, 5.44, 4.95, 7.59, 9.0, 8.34, 6.32, -0.0, -0.0, 2.81, 2.43, 2.43, 4.05, 2.09, -0.0, -0.0, -6.2, -8.31, -11.44, -13.19, -10.75, -0.0, -0.0, 4.52, 7.44, 9.17, 10.73, 9.48, 9.48, 10.73, 9.48, 7.44, 7.44, 9.48, 7.44, 6.7, 3.11, -0.0, -0.0, -0.0, -3.53, -3.25, -3.11, -4.6, -0.0, -0.0, -0.0, -0.0, -0.0, -2.37, -3.25, -1.93, -0.0, -0.0, 2.02, 1.93, 3.65, 3.14, 2.57, 2.7, 2.59, 2.82, 4.24, 7.19, 11.77, 11.28, -2.83, -1.71, 1.03, 2.28, 2.2, 1.96, 2.81, 3.95, 5.21, 5.48, 7.32, 9.12, 9.42, -0.0, -10.0, -11.71, -12.52, -12.96, 0.0, 0.0, 12.07, 10.73, 8.22, 3.04, 0.0, 2.45, 6.44, 7.59, 7.56, 8.0, 6.79, 7.15, 7.28, 6.18, 6.45, 8.38, 9.89, 8.93, 5.95, 6.2, -0.0, -0.0, -0.0, 2.43, 2.35, 2.02, 2.02, 2.35, -0.0, -2.81, -8.58, -11.8, -10.75, -11.38, -0.0, -0.0, 4.81, 8.18, 10.12, 10.12, 10.12, 11.8, 11.06, 11.06, 13.02, 13.57, 13.57, 13.15, 11.6, 8.22, -0.0, -0.0, -0.0, -0.0, -0.0, -0.0, -0.0, -0.0, -0.0, -0.0, -2.71, -5.0, -5.0, -2.39, -2.39, -0.0, -0.0, -0.0, 2.6, 2.39, -0.0, -0.0, -0.0, 3.96, 5.2, 6.17, 10.94, 12.5, -0.0, -2.71, -0.0, -0.0, -0.0, -0.0, -0.0, 0.8, 1.6, 4.81, 6.56, 8.72, 9.87, 6.2, -11.4, -9.64, -11.18, -10.73, -10.28, -6.95, 0.0, 0.0, 4.6, 3.04, 0.0, 0.0, 4.98, 6.67, 5.52, 4.96, 5.37, 7.13, 6.08, 6.08, 7.07, 9.05, 10.4, 8.8, 6.52, 6.2, 4.38, -0.0, -0.0, -0.0, 2.35, 2.35, 2.02, 2.02, 2.02, -0.0, -0.0, -5.48, -9.12, -8.93, -5.23, -0.0, 5.23, 8.93, 8.68, 10.75, 10.75, 12.52, 11.38, 13.39, 13.76, 15.61, 15.65, 15.2, 14.75, 13.86, 12.52, 12.07, -0.0, -0.0, -0.0, -0.0, -0.0, -0.0, -0.0, -3.39, -6.45, -5.95, -5.95, -5.21, -2.17, -2.17, -2.06, -0.0, -0.0, -0.0, -0.0, -0.0, -0.0, -0.0, 5.69, 8.49, 9.83, 11.36, 3.04, -3.21, -3.68, -1.84, -0.0, -0.0, -0.0, -0.0, 1.84, 5.52, 7.44, 8.69, 10.25, 12.3, -10.18, -10.28, -6.95, 4.6, 7.27, 10.28, 0.0, 0.0, 2.71, 2.6, 3.39, 2.49, 2.45, 2.63, 0.0, 2.97, 5.21, 6.95, 6.39, 6.06, 7.07, 8.0, 7.42, 6.99, 6.99, 9.8, 6.2, 4.38, -0.0, -0.0, 2.81, 2.35, 2.35, 2.35, 2.02, 2.09, -0.0, -0.0, -2.98, -3.79, -5.09, -0.0, -0.0, 5.37, 11.7, 13.39, 13.39, 13.39, 13.76, 15.69, 15.69, 16.54, 16.09, 15.65, 15.2, 15.2, 15.2, 13.86, 11.62, -0.0, 4.0, 8.8, 9.83, 11.18, -0.0, -5.7, -5.95, -7.59, -5.46, -5.21, -2.69, -2.06, -2.54, -2.54, -0.0, -0.0, -0.0, -0.0, -0.0, -0.0, 3.6, 8.49, 9.83, 8.22, -0.0, -1.69, -5.95, -3.25, -3.11, -0.0, -0.0, -0.0, 3.11, 5.29, 7.59, 8.6, 10.52, 12.52, -11.62, -6.2, 3.07, 7.24, 10.77, 12.42, 13.86, 3.14, 0.0, 0.0, 0.0, 0.0, 4.2, 0.0, 0.0, 0.0, 2.83, 5.46, 5.3, 6.01, 7.32, 7.92, 7.32, 6.7, 6.7, 9.8, 9.8, 7.93, 3.36, 2.72, 2.81, 2.81, 2.89, -0.0, 2.35, 2.43, 2.09, -0.0, -0.0, -0.0, -0.0, -0.0, -0.0, 7.6, 15.19, 16.54, 16.09, 16.09, 16.09, 16.09, 16.09, 16.09, 16.09, 16.09, 16.54, 16.99, 16.99, 16.09, 14.3, 8.94, 6.32, 8.4, 10.73, 10.28, -0.0, -4.8, -4.96, -3.11, -3.8, -5.21, -2.83, -2.83, -0.0, -0.0, -0.0, -0.0, -0.0, -0.0, -0.0, -0.0, -0.0, -0.0, -0.0, -0.0, -0.0, -0.0, -4.6, -4.4, -0.0, -0.0, -0.0, -0.0, 3.8, 6.64, 9.2, 12.86, 12.07, 12.96, -0.0, 1.44, 4.43, 7.73, 10.57, 12.36, 13.34, 14.55, 0.0, -6.0, -5.6, 0.0, 0.0, 0.0, 0.0, 1.2, 4.21, 4.98, 4.46, 5.13, 6.95, 7.64, 7.31, 7.02, 7.02, 11.53, 9.8, 7.93, 6.4, 6.2, 6.2, 3.47, 3.47, -0.0, -0.0, -0.0, 2.5, 2.5, -0.0, -0.0, -0.0, -0.0, -0.0, 11.7, 15.69, 16.09, 16.09, 15.65, 15.2, 15.65, 16.09, 16.54, 16.54, 16.54, 17.43, 17.43, 17.88, 17.88, 16.09, 12.52, 8.49, 6.32, 7.27, -0.0, -0.0, -0.0, -2.97, -2.69, -2.69, -2.83, -4.2, -0.0, -0.0, -0.0, -0.0, -0.0, -0.0, -0.0, -0.0, -0.0, -0.0, -0.0, -0.0, -0.0, -0.0, -0.0, -0.0, -0.0, -0.0, -0.0, 2.69, 5.69, 8.49, 9.33, 11.06, 15.65, 13.37, 12.51, 11.64, 10.69, 10.05, 11.06, 12.76, 13.8, 13.58, 13.19, 14.3, -9.8, -5.6, 0.0, 0.0, 2.17, 0.0, 1.2, 2.82, 3.87, 3.8, 4.28, 6.05, 6.88, 6.53, 6.64, 6.64, 11.53, 11.53, 7.69, 6.4, 6.2, 6.2, 6.4, 3.47, -0.0, -0.0, -0.0, -0.0, 3.07, 3.07, -0.0, -0.0, -0.0, 4.95, 11.06, 13.59, 15.65, 16.09, 11.06, 11.7, 10.75, 16.54, 13.86, 16.99, 17.43, 16.09, 17.43, 17.88, 17.88, 17.43, 15.65, 12.52, 9.83, 7.81, 3.11, -0.0, -0.0, -0.0, -0.0, -0.0, -0.0, -0.0, -0.0, -0.0, -0.0, -0.0, -0.0, -0.0, -0.0, -0.0, -0.0, -0.0, -0.0, 10.73, 11.18, 7.9, 7.59, -0.0, -0.0, -0.0, -0.0, -0.0, 2.69, 8.94, 9.33, 11.95, 13.86, 15.23, 17.62, 17.72, 16.79, 15.81, 15.43, 15.15, 15.51, 15.51, 13.75, 14.3, -13.15, -8.85, -5.2, 0.0, 2.49, 2.19, 1.52, 1.33, 1.39, 3.3, 4.4, 5.18, 5.9, 5.64, 5.9, 5.9, 11.53, 11.53, 9.8, 9.8, 9.8, 9.8, 6.4, 3.47, -0.0, -0.0, -0.0, -0.0, 3.07, 3.07, 3.79, -0.0, -0.0, -0.0, 7.0, 6.8, 7.6, -0.0, -0.0, 7.8, 7.4, 11.7, -0.0, 16.09, 16.99, 16.99, 17.43, 17.43, 17.43, 17.43, 16.99, 15.2, 12.96, 11.03, 8.55, 4.71, 4.96, 2.97, 2.97, 2.97, 4.0, -0.0, -0.0, -0.0, -0.0, -0.0, -0.0, -0.0, -0.0, -0.0, -0.0, -0.0, 10.73, 9.83, 10.28, 10.73, 10.28, -0.0, -0.0, -4.2, -2.69, -0.0, -0.0, 6.64, 10.14, 11.03, 12.82, 15.27, 18.74, 19.66, 18.76, 16.76, 14.94, 13.58, 15.04, 15.02, 15.2, 15.2, -14.75, -13.01, -11.45, -7.9, 0.0, 3.25, 3.53, 1.52, 2.95, 4.08, 4.72, 3.51, 4.4, 5.29, 5.29, 5.29, 11.53, 11.53, 11.53, 11.53, 11.53, 9.8, 3.36, -0.0, -0.0, -0.0, 2.89, 2.98, 3.79, 3.79, 3.79, 3.79, 3.58, 4.66, 4.1, 4.81, 5.37, 4.01, 5.23, 8.93, 12.01, 14.13, 11.38, 12.01, 15.59, 17.88, 17.88, 17.43, 17.43, 17.43, 16.99, 16.54, 14.75, 12.96, 11.62, 9.75, 8.91, 8.18, 6.95, 6.95, 6.64, 7.59, -0.0, -0.0, -0.0, -0.0, -0.0, -0.0, -0.0, -0.0, -0.0, 4.0, 10.28, 10.28, 7.59, 9.83, 9.83, 9.83, -6.95, -6.95, -4.0, -4.0, -0.0, 3.11, 7.59, 9.46, 10.94, 13.92, 18.05, 20.04, 18.59, 15.83, 12.01, 12.01, 12.76, 13.51, 15.09, 15.43, -15.2, -14.3, -13.41, -11.62, -7.59, 0.0, 4.6, 4.6, 4.2, 5.6, 3.44, 2.83, 3.21, 4.5, 4.5, 4.5, 13.15, 13.15, 13.15, 11.53, 11.53, 7.69, 2.72, -0.0, -0.0, -0.0, 2.98, 2.98, 2.98, 3.79, 3.79, 3.79, 3.69, 3.58, 4.66, 5.23, 9.42, 9.17, 8.93, 11.38, 14.13, 14.88, 14.51, 14.79, 15.69, 16.12, 16.54, 17.43, 17.43, 17.43, 16.99, 16.99, 15.65, 13.86, 12.52, 11.18, 10.28, 9.33, 8.91, 8.91, 7.44, 5.69, 7.27, -0.0, -0.0, -0.0, -0.0, -0.0, -0.0, -0.0, -0.0, 6.95, 8.8, 10.73, 0.0, 0.0, 0.0, -9.39, -8.4, -8.4, -6.64, -0.0, -0.0, 4.4, 5.7, 5.0, 7.54, 11.1, 15.97, 18.29, 7.73, 8.58, 9.71, 10.17, 10.46, 11.06, 13.03, 14.31, 14.75, 14.3, -13.86, -11.62, -7.27, 0.0, 5.21, 6.2, 6.2, 6.97, 5.2, 2.46, 2.69, 3.8, 3.63, 3.63, 13.86, 13.86, 13.15, 13.15, 11.53, 6.2, 2.81, 2.35, -0.0, -0.0, 2.98, 2.98, 3.07, 3.07, 3.79, 3.79, 6.8, 6.6, 4.81, 5.23, 5.37, 11.38, 10.75, 12.65, 13.76, 16.54, 16.96, 16.91, 16.48, 15.61, 16.05, 16.05, 16.54, 16.54, 16.54, 16.54, 16.09, 14.75, 12.96, 11.62, 10.73, 9.75, 9.33, 7.44, 6.7, 6.32, 6.95, 9.39, -0.0, -0.0, -0.0, -0.0, -0.0, -0.0, -0.0, 4.0, 6.64, 9.2, 0.0, 0.0, 0.0, -8.94, -8.4, -6.32, -4.0, -0.0, -0.0, 4.2, 6.95, 2.97, 3.53, 8.85, 16.79, -16.99, -10.0, 0.0, 5.14, 7.4, 8.16, 9.67, 10.75, 12.13, 13.67, 13.86, -0.0, -8.53, -7.27, -0.0, 10.28, 0.0, 4.65, 7.9, 7.27, 2.83, 2.69, 3.45, 3.45, 3.45, 13.86, 13.86, 13.86, 13.15, 7.69, 5.15, 2.28, 2.35, 2.43, 2.98, 2.98, 3.07, 3.07, 3.07, 3.07, 7.0, 7.0, 6.6, 7.0, 8.93, 9.17, 12.01, 11.38, 13.99, 14.42, 15.69, 16.54, 16.54, 16.54, 16.48, 15.61, 15.61, 15.61, 16.09, 16.09, 16.09, 16.09, 15.2, 13.41, 11.62, 9.75, 9.33, 9.75, 8.55, 7.44, 6.32, 6.95, 6.64, -0.0, -0.0, -0.0, -0.0, -0.0, -0.0, -0.0, 3.8, 4.46, 6.32, 10.28, 0.0, -3.8, -8.49, -6.01, -3.8, -4.0, -0.0, -0.0, 6.95, 8.0, 8.8, 10.28, 14.75, 17.88, 18.68, 17.43, -10.12, 0.0, 3.04, 5.48, 7.0, 8.93, 10.77, 12.74, 13.41, 5.8, -2.82, -4.8, -5.46, -8.4, -8.91, 0.0, 0.0, 9.39, 6.32, 3.8, 2.98, 3.63, 3.63, 13.86, 13.86, 13.86, 13.86, 9.8, 6.2, 4.38, 2.35, 2.43, 2.98, 2.98, 2.98, 3.07, 5.81, 5.81, 7.0, 7.0, 6.8, 6.8, 8.93, 8.93, 12.01, 12.01, 13.76, 13.02, 14.84, 16.12, 16.54, 16.54, 16.48, 16.48, 16.05, 15.65, 15.65, 16.09, 16.09, 16.09, 15.65, 14.3, 12.07, 9.97, 9.33, 9.33, 9.75, 8.18, 7.81, 6.7, 6.01, 6.32, 7.81, 6.32, 7.27, 6.01, -0.0, 6.01, 6.01, 3.8, 5.37, 6.32, 9.39, 0.0, -7.6, -8.94, -4.2, -0.0, -0.0, 2.97, 4.2, 9.2, 9.75, 9.58, 12.51, 16.54, 17.78, 18.96, 18.96, 17.97, 2.79, 2.09, 4.12, 6.6, 9.33, 11.54, 14.42, 11.99, -3.53, -7.27, -7.44, -8.94, -8.48, -6.95, 0.0, 6.95, 6.64, 4.96, 2.83, 3.14, 3.14, 13.86, 13.86, 13.86, 12.39, 7.69, 3.36, 2.72, 4.52, 2.43, 2.89, 2.98, 3.69, 3.79, 3.79, 7.0, 7.0, 7.0, 7.0, 7.0, 11.06, 11.06, 11.38, 14.13, 14.13, 13.76, 13.39, 13.39, 16.12, 16.54, 16.91, 16.48, 16.99, 16.54, 16.54, 16.09, 16.09, 16.09, 16.09, 15.65, 13.41, 11.18, 10.28, 9.33, 9.33, 9.75, 9.75, 9.33, 8.06, 8.48, 8.91, 8.91, 7.6, 6.95, 6.01, 6.01, 6.01, -0.0, 3.6, 5.69, 8.0, 9.83, 10.28, -8.94, -2.97, -0.0, -0.0, 3.25, 3.39, 10.28, 7.27, 8.58, 12.46, 13.41, 16.89, 18.16, 18.88, 19.58, 15.92, 3.49, 2.45, 4.58, 7.28, 10.01, 11.9, 12.07, -0.0, -6.64, -8.06, -8.94, -8.49, -9.39, -3.25, 0.0, 3.25, 5.46, 4.2, 2.58, 2.58, 13.86, 13.86, 13.86, 12.39, 4.38, 2.72, 2.72, 2.72, 5.31, 2.89, 2.98, 3.69, 3.79, 3.69, 7.0, 7.0, 7.0, 9.39, 9.39, 11.06, 11.06, 11.06, 11.38, 13.76, 13.76, 13.76, 13.39, 13.76, 16.48, 16.48, 16.48, 16.48, 16.48, 16.48, 16.54, 16.54, 16.54, 16.54, 16.54, 15.65, 13.86, 12.07, 10.73, 9.33, 9.75, 9.75, 10.28, 9.39, 8.94, 8.94, 8.48, 8.48, 7.2, 7.21, 5.69, 3.4, -0.0, -0.0, 5.06, 6.32, 8.4, 8.4, -0.0, -2.83, -0.0, -0.0, 3.39, 7.27, 9.83, 9.75, 9.58, 10.88, 12.35, 13.86, 14.08, 14.97, 19.01, 18.33, 0.0, 0.0, 3.6, 6.6, 7.93, 9.17, 9.97, 11.18, -0.0, -8.49, -8.49, -6.32, -4.0, -7.27, 0.0, 0.0, 2.71, 3.98, 3.39, 3.39, 13.86, 13.86, 13.86, 9.8, 3.36, 2.72, 2.72, 2.72, 4.52, 5.31, 5.48, 3.69, 3.69, 3.69, 4.81, 6.8, 7.0, 9.39, 9.39, 9.39, 11.06, 11.06, 11.06, 11.06, 13.39, 13.39, 13.39, 13.39, 14.79, 14.79, 14.79, 14.79, 16.48, 16.48, 16.99, 16.54, 16.54, 16.99, 16.99, 16.09, 14.75, 12.96, 11.18, 9.83, 10.28, 9.83, 10.28, 9.83, 8.94, 8.94, 8.94, 8.49, 7.6, 6.8, 5.06, 3.4, -0.0, -0.0, 3.2, 5.37, 7.63, 8.0, -0.0, -0.0, -0.0, -0.0, 9.6, 10.28, 9.83, 10.28, 10.96, 11.3, 11.99, 12.31, 12.96, 14.3, 17.4, 16.99, -8.66, -1.39, 2.33, 5.92, 7.82, 8.73, 10.35, 12.07, 7.27, 6.01, -0.0, -0.0, -0.0, -2.71, -12.07, -3.96, 0.0, 2.37, 3.68, 3.68, 13.86, 13.86, 13.86, 11.53, 6.2, 2.72, -0.0, 2.35, 2.35, 4.52, 5.48, 5.64, 7.0, 3.79, 3.79, 4.81, 6.8, 9.12, 9.12, 9.12, 11.06, 11.06, 11.06, 11.06, 13.02, 13.02, 13.02, 13.39, 13.76, 14.79, 14.79, 14.79, 16.05, 16.05, 16.54, 16.54, 16.54, 16.99, 16.99, 16.54, 15.65, 13.41, 11.62, 9.83, 9.39, 9.83, 10.73, 11.62, 11.62, 9.39, 8.94, 8.94, 8.49, 8.05, 6.0, 4.74, -0.0, -0.0, 3.2, 5.37, 6.8, 4.0, -0.0, -0.0, -0.0, 7.27, 10.18, 10.28, 8.8, 9.75, 11.02, 12.22, 12.08, 11.8, 11.9, 14.59, 15.91, 13.97, -8.31, -6.21, 0.0, 4.98, 7.82, 8.58, 9.42, 10.18, 9.83, 9.2, 7.59, -0.0, -0.0, -0.0, -0.0, -12.96, 0.0, 3.14, 3.82, 3.82, 13.86, 13.86, 13.86, 12.39, 8.31, 2.72, 2.28, 2.35, 2.35, 4.52, 5.31, 7.82, 5.64, 7.0, 3.9, 3.79, 8.43, 6.8, 9.12, 10.75, 12.52, 12.52, 12.52, 12.52, 13.99, 13.02, 12.65, 13.02, 13.39, 14.39, 15.61, 15.61, 15.61, 15.61, 16.05, 16.54, 16.54, 16.54, 16.99, 16.99, 16.09, 14.3, 12.52, 9.83, 8.05, 9.83, 12.07, 13.41, 13.41, 12.52, 11.18, 8.94, 8.49, 7.6, 6.71, 6.71, -0.0, -0.0, 3.4, 2.26, -0.0, -0.0, -3.8, -4.2, 4.2, 6.64, 9.33, 10.73, 6.64, 6.95, 8.73, 11.3, 12.92, 13.55, 13.41, 14.73, 14.64, 13.38, 8.58, -6.2, 0.0, 3.14, 7.34, 9.31, 9.96, 11.99, 13.41, 12.96, 10.41, 3.96, -0.0, -0.0, 3.04, -0.0, 12.96, 4.1, 4.65, 4.65, 13.41, 13.41, 13.59, 11.88, 8.31, 5.15, 2.28, 2.35, 4.52, 5.48, 5.48, 7.36, 7.82, 5.64, 7.0, 7.0, 7.0, 8.68, 9.39, 11.06, 12.52, 12.52, 12.52, 12.52, 13.99, 13.02, 12.65, 12.27, 12.65, 14.84, 15.27, 14.84, 15.18, 15.18, 15.61, 16.09, 16.54, 16.54, 16.54, 16.99, 16.54, 15.2, 12.96, 10.73, 8.94, 10.28, 12.96, 14.3, 14.3, 13.41, 11.62, 9.39, 6.71, 6.71, 5.81, 5.36, 7.15, -0.0, -0.0, -0.0, -3.2, -3.8, -6.01, -0.0, 6.32, 7.6, 7.6, 9.83, 9.75, 7.27, 6.14, 9.2, 12.45, 14.75, 17.22, 16.39, 15.25, 12.89, 12.79, 12.22, 0.0, 0.0, 5.64, 10.75, 13.02, 14.39, 15.43, 15.2, 13.86, 12.58, 10.79, 7.19, 9.17, 10.01, 9.17, 12.96, 6.94, 6.94, 13.23, 13.23, 13.23, 11.88, 9.8, 7.13, 4.38, 4.52, 5.31, 5.48, 5.48, 5.48, 5.48, 8.05, 5.81, 7.0, 7.0, 7.2, 11.38, 11.38, 12.87, 12.87, 12.52, 12.52, 13.99, 13.02, 12.65, 11.9, 15.27, 13.99, 14.84, 15.27, 15.61, 15.18, 15.18, 15.61, 16.09, 16.54, 16.54, 16.54, 16.54, 15.65, 13.86, 11.18, 10.28, 11.18, 12.96, 14.75, 13.86, 12.52, 10.28, 8.05, 7.15, 6.71, 5.81, 4.92, 5.36, 7.15, 7.6, -5.06, -6.0, -7.6, 8.49, 8.49, 6.32, 7.6, 7.63, 9.39, 10.28, 10.41, 8.18, 8.55, 12.14, 15.2, 20.12, 20.87, 14.18, 9.69, 11.2, 13.8, 14.75, 5.37, 0.0, 11.38, 15.36, 15.69, 16.82, 16.09, 14.3, 12.96, 12.27, 11.62, 10.73, 10.73, 10.41, 12.52, 11.45, 11.45, 13.23, 13.23, 12.72, 12.39, 10.82, 7.13, 5.15, 5.31, 5.31, 5.48, 5.48, 5.48, 5.48, 5.48, 8.05, 7.0, 7.0, 7.0, 7.0, 11.38, 12.87, 12.87, 12.87, 13.99, 13.59, 12.65, 12.65, 11.9, 12.39, 14.84, 13.99, 14.84, 15.61, 15.61, 15.61, 15.61, 16.09, 16.54, 16.54, 16.54, 16.54, 16.09, 14.3, 12.07, 10.73, 11.62, 12.96, 13.86, 13.86, 11.62, 9.39, 8.94, 8.94, 8.05, 7.15, 6.26, 5.81, 5.36, 6.26, -6.26, -5.81, -7.6, 8.94, 8.05, 6.01, 5.69, 7.2, 8.49, 9.83, 10.73, 10.28, 10.73, 9.3, 12.79, 19.03, 25.46, 14.37, 7.54, 8.53, 11.8, 14.31, 15.61, 15.78, 16.05, 16.66, 17.88, 17.88, 16.54, 14.3, 12.83, 12.35, 11.45, 10.8, 11.2, 12.04, 12.52, 11.62, 11.62, 13.23, 13.23, 12.72, 11.5, 11.88, 9.8, 8.31, 8.58, 8.58, 8.85, 5.48, 5.64, 5.48, 5.48, 7.82, 9.39, 7.0, 7.0, 7.0, 11.38, 12.87, 13.23, 12.87, 14.39, 13.59, 13.59, 12.65, 12.27, 13.19, 13.19, 13.19, 14.75, 15.18, 15.18, 15.61, 15.61, 16.09, 16.09, 16.54, 16.54, 16.54, 16.54, 15.2, 12.96, 11.62, 11.62, 12.52, 13.86, 13.86, 12.07, 9.83, 9.39, 9.39, 8.94, 5.69, 5.06, 0.0, 6.26, 0.0, -4.11, -7.6, 8.05, 8.05, -0.0, -0.0, -0.0, 5.69, 7.2, 9.39, 10.28, 9.64, 11.62, 9.66, 10.85, 16.78, 23.61, 19.19, 14.22, 13.23, 12.98, 14.23, 15.39, 16.46, 16.88, 16.99, 17.43, 17.88, 16.09, 13.86, 12.42, 11.61, 11.45, 11.61, 11.61, 11.95, 11.95, 12.07, 12.07, 13.23, 13.23, 12.72, 11.5, 11.88, 11.09, 9.8, 8.58, 8.85, 8.85, 5.64, 5.64, 5.64, 5.48, 7.59, 9.12, 9.12, 6.8, 9.12, 11.06, 12.87, 12.87, 12.87, 14.39, 13.99, 13.59, 12.65, 13.99, 13.99, 14.75, 14.75, 14.75, 14.75, 14.75, 15.18, 15.18, 16.09, 16.09, 16.54, 16.54, 16.54, 16.09, 15.2, 13.41, 12.07, 11.62, 12.52, 13.41, 13.41, 12.96, 10.73, 10.28, 9.39, 8.94, 7.6, 5.37, 5.06, 0.0, 4.43, 3.79, 0.0, 8.05, -0.0, -0.0, -0.0, -0.0, 5.37, 6.01, 8.0, 9.39, 9.83, 11.62, 12.46, 12.18, 14.65, 17.86, 19.45, 18.16, 15.97, 15.49, 14.03, 14.65, 15.96, 16.47, 16.09, 16.09, 16.09, 14.3, 12.52, 12.07, 11.53, 11.09, 11.51, 11.53, 12.07, 12.07, 12.07, 12.07, 13.15, 13.15, 12.45, 12.45, 11.88, 11.09, 11.44, 11.44, 11.8, 8.85, 5.64, 5.64, 5.64, 5.48, 7.59, 7.82, 9.12, 6.8, 9.12, 11.06, 12.52, 12.87, 14.39, 14.39, 13.99, 13.59, 13.59, 14.31, 14.31, 14.75, 14.75, 14.75, 14.31, 14.31, 14.31, 15.2, 15.65, 15.65, 16.09, 16.09, 16.09, 16.09, 15.65, 13.41, 12.07, 11.62, 12.07, 12.96, 13.41, 12.96, 11.62, 9.75, 9.33, 8.91, 7.6, 7.2, 5.37, 5.06, 4.74, 5.2, 3.79, 5.36, -0.0, -5.37, -0.0, -0.0, 5.69, 6.01, 6.32, 8.94, 10.73, 10.28, 13.41, 13.38, 14.62, 15.17, 16.07, 18.13, 20.99, 21.37, 18.0, 13.74, 12.9, 13.7, 13.8, 13.36, 12.92, 12.03, 11.62, 11.18, 11.18, 11.18, 11.62, 11.62, 11.62, 12.07, 12.07, 12.07, 12.71, 12.71, 13.15, 12.45, 12.87, 12.87, 12.79, 11.44, 11.8, 8.85, 5.64, 5.64, 5.64, 5.64, 7.59, 8.85, 9.12, 6.8, 9.12, 11.06, 12.52, 13.99, 14.39, 14.39, 13.99, 13.59, 13.59, 14.31, 14.31, 14.75, 14.75, 14.75, 14.31, 14.31, 14.75, 14.75, 14.75, 15.2, 15.65, 16.09, 16.09, 16.09, 15.2, 12.96, 10.28, 10.73, 11.62, 12.52, 12.96, 12.3, 11.45, 10.6, 9.75, 9.33, 8.48, 7.2, 6.8, 5.37, 4.74, 5.6, 5.2, 0.0, 8.05, -5.37, -0.0, 6.32, 5.69, 6.01, 8.94, 8.94, 9.39, 10.28, 12.35, 14.68, 14.75, 13.99, 14.47, 16.45, 20.39, 22.49, 20.45, 13.19, 11.37, 11.6, 11.99, 12.35, 12.48, 11.14, 11.14, 11.14, 11.62, 11.62, 11.62, 12.07, 12.07, 11.62, 12.07, 12.07, 12.71, 12.71, 13.15, 13.15, 13.59, 12.87, 12.79, 12.79, 10.43, 5.48, 5.64, 5.64, 5.64, 7.82, 9.12, 8.85, 8.85, 6.8, 9.12, 11.06, 12.52, 13.99, 13.99, 14.39, 13.99, 13.59, 13.19, 14.31, 14.31, 14.31, 14.75, 14.31, 14.31, 14.31, 14.75, 14.75, 14.3, 15.2, 15.2, 15.65, 15.65, 16.09, 14.75, 12.07, 9.83, 10.73, 10.4, 11.2, 11.99, 11.6, 11.2, 10.4, 10.18, 9.33, 8.48, 8.06, 6.8, 6.8, 4.74, 5.6, 4.11, 0.0, 8.05, -7.15, -0.0, -0.0, -0.0, -0.0, -0.0, 8.49, 8.94, 10.28, 12.07, 13.82, 17.41, 15.17, 13.47, 15.0, 18.45, 20.09, 18.08, 14.81, 13.28, 11.72, 12.14, 12.66, 12.47, 11.58, 11.58, 11.58, 11.58, 11.58, 11.58, 12.07, 12.07, 12.07, 12.02, 12.07, 12.96, 12.96, 12.96, 13.15, 13.59, 13.59, 12.79, 12.79, 8.85, 5.48, 5.64, 5.64, 5.64, 9.12, 9.12, 8.85, 8.85, 8.85, 10.75, 12.16, 13.99, 13.99, 13.99, 13.99, 13.99, 13.59, 13.19, 14.31, 13.88, 13.88, 14.31, 13.99, 13.99, 14.75, 14.3, 14.75, 14.3, 14.3, 15.2, 15.2, 15.65, 15.65, 14.75, 12.07, 10.73, 12.07, 12.39, 12.79, 12.79, 12.39, 11.6, 10.8, 9.6, 9.2, 8.0, 7.6, 7.2, 3.4, 3.2, 4.74, 4.43, 2.6, 0.0, 8.05, 8.05, -0.0, -0.0, -0.0, -0.0, 8.49, 8.94, 8.0, 11.62, 12.96, 15.18, 15.79, 15.65, 15.01, 15.83, 14.84, 14.31, 14.42, 13.99, 13.07, 12.33, 12.58, 12.88, 12.01, 12.02, 12.03, 11.58, 11.58, 11.59, 12.03, 12.03, 12.02, 12.03, 12.02, 12.96, 12.96, 12.96, 13.41, 13.15, 13.59, 13.44, 11.44, 8.58, 5.48, 5.48, 5.48, 9.12, 9.12, 8.85, 8.85, 8.85, 8.85, 10.43, 12.16, 13.59, 13.59, 13.59, 13.99, 13.99, 13.99, 13.19, 12.79, 13.88, 13.88, 13.57, 13.99, 13.99, 14.75, 14.3, 14.3, 14.3, 13.86, 14.3, 14.75, 14.75, 15.2, 14.3, 12.52, 11.62, 12.96, 10.75, 11.06, 10.43, 12.79, 12.39, 11.2, 9.6, 8.8, 6.32, 6.01, 5.69, 5.37, 5.37, 5.06, 4.74, 2.6, 0.0, 7.15, 7.6, 8.05, -0.0, -0.0, 5.37, 8.05, 6.01, 6.32, 10.18, 11.18, 12.14, 14.24, 18.33, 19.12, 15.49, 11.03, 10.09, 11.5, 13.01, 12.46, 12.3, 12.04, 11.98, 12.0, 11.57, 11.57, 11.58, 11.46, 11.49, 11.91, 11.91, 11.91, 11.91, 11.91, 12.52, 12.52, 12.96, 12.96, 13.41, 13.15, 12.39, 10.12, 6.4, 6.4, 6.6, 6.6, 8.85, 8.85, 8.85, 8.85, 8.85, 8.85, 10.43, 13.19, 13.59, 13.59, 13.59, 13.59, 13.59, 13.59, 13.19, 12.79, 13.88, 13.44, 13.44, 13.15, 14.3, 14.3, 14.3, 13.86, 13.86, 13.41, 13.86, 14.3, 14.3, 14.3, 13.86, 12.52, 12.07, 13.41, 14.75, 10.75, 10.12, 9.8, 11.99, 10.8, 8.8, 6.64, 6.32, 6.01, 5.69, 3.6, 5.69, 5.37, 5.06, 2.12, 0.0, 7.6, 7.6, 7.6, 8.05, 8.05, 7.15, 8.05, 7.6, 6.01, 9.75, 9.7, 11.62, 13.41, 17.02, 21.3, 16.96, 12.0, 10.6, 11.28, 11.91, 12.35, 12.04, 11.61, 11.28, 11.35, 11.4, 11.44, 11.46, 11.46, 11.33, 11.71, 11.71, 11.71, 11.71, 11.71, 12.52, 12.52, 12.96, 12.96, 13.41, 13.01, 12.39, 9.8, 6.2, 6.4, 6.4, 8.85, 8.85, 8.85, 8.85, 8.85, 8.85, 8.85, 10.43, 13.19, 13.59, 13.59, 13.59, 13.59, 13.59, 13.59, 13.19, 12.79, 13.44, 13.44, 13.01, 13.41, 13.41, 13.86, 14.3, 13.41, 13.41, 13.41, 13.41, 13.41, 13.86, 13.86, 13.41, 12.07, 11.62, 12.96, 14.3, 14.3, 11.99, 11.2, 10.8, 10.0, 6.64, 6.64, 6.32, 6.32, 5.69, 3.6, 3.6, 5.69, 4.22, 4.22, 0.0, 7.6, 7.6, 7.6, 8.05, 8.05, 7.15, 7.6, 7.2, 7.07, 7.51, 9.2, 10.46, 11.84, 14.3, 18.37, 19.45, 16.16, 13.78, 14.44, 15.15, 13.63, 12.85, 12.04, 11.56, 11.56, 11.21, 11.34, 11.45, 11.03, 11.54, 12.2, 11.76, 11.45, 11.45, 11.45, 12.52, 12.52, 12.96, 12.96, 13.41, 13.01, 11.53, 7.69, 6.4, 6.4, 8.58, 8.85, 8.85, 6.6, 6.6, 6.6, 10.43, 10.43, 11.8, 13.19, 13.59, 13.59, 13.59, 13.59, 13.59, 13.59, 13.19, 13.88, 13.44, 13.01, 13.01, 13.41, 13.41, 13.41, 13.41, 13.41, 12.96, 13.41, 13.41, 13.41, 13.41, 13.41, 12.96, 11.62, 11.18, 10.8, 12.72, 11.99, 11.99, 10.8, 10.0, 9.2, 6.32, 6.32, 6.01, 6.01, 3.6, 3.6, 2.4, 5.69, 5.69, 4.22, 3.2, 0.0, 8.05, -0.0, 8.05, 7.15, 7.6, 6.8, 6.32, 7.07, 8.4, 9.75, 10.41, 11.11, 12.52, 14.62, 16.54, 17.02, 16.6, 17.86, 19.41, 18.33, 13.8, 11.72, 11.12, 11.12, 10.99, 10.6, 11.2, 10.73, 11.87, 11.45, 11.54, 10.85, 10.85, 10.85, 12.52, 12.52, 12.96, 12.96, 12.96, 11.99, 9.48, 7.69, 7.93, 7.93, 10.12, 10.12, 6.6, 6.6, 8.18, 8.18, 10.43, 12.27, 13.19, 13.19, 13.19, 13.59, 13.59, 13.59, 13.59, 13.59, 13.19, 13.88, 13.44, 13.44, 13.01, 12.96, 12.96, 12.96, 12.96, 12.96, 12.96, 12.96, 13.41, 12.96, 12.96, 12.96, 12.96, 11.62, 10.0, 10.8, 11.6, 12.3, 11.6, 10.8, 7.9, 6.95, 6.32, 6.01, 5.69, 5.69, 2.54, 2.54, 2.4, 4.22, 5.37, 5.37, 5.06, 0.0, 5.81, -0.0, 8.05, 7.15, 7.6, 7.2, 7.2, 8.06, 8.67, 9.64, 10.28, 10.73, 11.55, 12.92, 13.67, 12.94, 13.96, 18.74, 21.98, 19.41, 15.91, 13.57, 10.09, 10.02, 10.23, 10.55, 9.82, 9.58, 10.2, 10.8, 10.85, 10.85, 10.85, 10.85, 12.52, 12.52, 12.96, 12.96, 13.01, 11.99, 9.48, 9.8, 7.69, 7.93, 10.12, 10.12, 8.18, 8.18, 8.18, 10.43, 12.27, 12.27, 13.19, 13.19, 13.19, 13.59, 13.59, 13.59, 13.59, 13.59, 14.31, 13.88, 13.44, 13.44, 13.01, 12.96, 12.96, 12.52, 12.52, 12.52, 12.52, 12.52, 12.96, 12.96, 12.96, 12.96, 12.96, 12.07, 10.0, 10.8, 11.2, 11.2, 11.2, 8.22, 7.59, 6.95, 6.32, 6.01, 4.46, 4.46, 2.54, 2.4, 2.54, 2.4, 5.06, 5.06, 4.74, 4.43, 5.81, 8.49, 7.6, 8.05, 8.49, 8.05, 8.49, 8.49, 8.94, 9.39, 10.28, 10.73, 11.18, 12.44, 12.04, 11.12, 11.9, 17.16, 21.37, 20.39, 17.59, 15.61, 12.74, 9.48, 9.17, 9.66, 9.3, 9.67, 9.58, 9.81, 10.0, 10.15, 10.15, 10.15, 12.52, 12.52, 12.96, 12.96, 12.58, 11.99, 9.8, 9.8, 9.8, 9.8, 10.12, 10.12, 7.93, 8.18, 10.43, 12.27, 12.27, 12.27, 12.27, 11.9, 11.9, 13.19, 13.59, 13.59, 13.59, 14.75, 14.31, 13.88, 13.44, 13.44, 13.01, 13.01, 12.96, 12.52, 12.52, 12.07, 12.07, 12.52, 12.52, 12.52, 12.52, 12.52, 12.52, 12.07, 10.0, 10.8, 11.2, 11.2, 10.8, 7.9, 7.59, 7.27, 6.64, 4.96, 4.46, 4.22, 4.22, 2.4, 2.4, 2.4, 3.4, 4.74, 5.6, 4.8, 3.48, 8.05, 7.6, 7.6, 8.05, 8.05, 8.94, 8.49, 8.94, 9.39, 9.83, 10.28, 10.73, 11.18, 10.8, 10.94, 12.6, 14.84, 18.38, 19.58, 21.19, 18.9, 16.05, 3.14, 8.01, 8.53, 8.53, 8.82, 8.94, 8.93, 9.81, 9.81, 9.81, 9.81, 12.52, 12.52, 12.96, 12.58, 11.6, 11.99, 9.8, 9.8, 9.8, 10.12, 10.12, 10.12, 10.43, 12.27, 12.27, 12.27, 12.27, 12.27, 12.27, 12.27, 12.27, 12.27, 13.59, 13.59, 13.59, 13.19, 14.31, 13.88, 13.44, 13.01, 13.01, 13.01, 12.58, 12.52, 12.52, 12.07, 12.07, 12.07, 12.07, 12.52, 12.52, 12.52, 12.52, 12.07, 10.4, 11.2, 11.6, 11.2, 10.4, 7.59, 7.27, 6.95, 6.95, 5.21, 4.71, 4.46, 4.22, 3.97, 2.26, 2.4, 2.4, 4.74, 4.11, 4.8, 4.4, 6.71, 6.71, 0.0, 0.0, 8.49, 8.94, 9.39, 9.39, 9.39, 9.39, 9.83, 10.08, 10.18, 10.27, 10.4, 11.99, 12.72, 13.38, 17.14, 21.52, 20.35, -13.86, -5.2, 3.68, 7.24, 7.26, 8.22, 8.59, 9.09, 9.77, 9.2, 9.2, 9.2, 12.52, 12.52, 12.96, 12.58, 11.6, 11.99, 9.8, 9.8, 9.8, 11.9, 11.9, 11.9, 12.27, 12.27, 12.27, 13.99, 13.99, 12.27, 12.27, 12.27, 12.27, 12.27, 13.59, 13.59, 13.19, 13.19, 13.19, 12.79, 13.44, 13.44, 13.01, 13.01, 12.58, 11.87, 12.52, 12.07, 12.07, 12.07, 12.07, 12.07, 12.07, 12.07, 12.07, 12.07, 10.8, 11.2, 11.6, 11.2, 10.4, 7.59, 7.27, 6.95, 6.95, 4.96, 4.71, 4.46, 4.46, 4.22, 3.97, 2.26, 2.26, 2.8, 4.11, 3.79, 3.48, 4.43, 0.0, 0.0, 0.0, 0.0, 0.0, 8.94, 9.39, 9.83, 9.39, 9.39, 9.54, 9.64, 10.18, 10.84, 11.78, 12.27, 12.04, 15.04, 20.72, -18.21, -14.55, -10.28, -9.39, 7.27, 6.2, 7.9, 7.9, 8.93, 9.09, 8.58, 8.58, 8.58, 12.52, 12.52, 12.52, 12.58, 11.6, 11.6, 9.48, 9.8, 11.53, 11.9, 11.9, 12.27, 12.27, 13.99, 13.99, 13.99, 13.99, 13.99, 13.99, 12.27, 12.27, 12.27, 13.19, 13.19, 13.19, 13.19, 13.19, 12.79, 13.44, 13.44, 13.01, 13.01, 12.3, 12.3, 12.52, 12.07, 12.07, 11.62, 11.62, 11.62, 12.07, 12.07, 12.07, 11.62, 10.8, 11.2, 11.6, 11.2, 10.8, 7.9, 7.27, 6.95, 5.46, 4.96, 4.71, 4.46, 4.46, 4.22, 4.22, 2.26, 2.26, 2.12, 2.8, 3.79, 3.79, 3.79, 4.74, 0.0, 0.0, 0.0, 0.0, 0.0, 6.64, 9.83, 9.83, 9.39, 9.54, 9.54, 10.08, 11.06, 11.55, 11.55, 12.44, 14.3, 22.53, -20.56, -13.42, -6.2, -0.0, -0.0, 6.64, 7.27, 6.44, 6.98, 7.59, 7.9, 7.9, 7.9, 12.52, 12.52, 12.14, 12.58, 11.6, 11.6, 11.99, 11.53, 11.53, 11.9, 11.9, 13.99, 13.99, 13.99, 13.99, 13.99, 13.99, 13.99, 13.99, 13.99, 13.99, 13.99, 14.31, 13.19, 13.19, 13.19, 12.79, 12.79, 12.39, 13.01, 13.01, 12.3, 12.3, 12.3, 12.52, 12.07, 12.07, 11.62, 11.62, 11.62, 11.62, 11.62, 11.62, 11.62, 10.4, 10.4, 10.8, 10.8, 10.8, 7.9, 7.59, 8.55, 6.95, 5.21, 4.96, 4.71, 4.46, 4.46, 4.22, 2.4, 2.26, 2.12, 1.98, 3.22, 3.22, 4.11, 5.58, 6.36, 6.71, 7.15, 5.37, 5.69, 6.01, 6.32, 9.83, 9.39, 9.39, 9.83, 10.28, 10.73, 11.18, 11.55, 12.07, 19.45, 22.46, 21.01, -10.19, -5.8, -0.0, -0.0, -0.0, -0.0, 4.2, 5.63, 6.14, 6.95, 6.95, 6.95, 12.52, 12.52, 12.14, 12.14, 11.6, 11.6, 11.99, 11.99, 12.39, 13.44, 13.57, 13.57, 13.99, 13.99, 13.99, 13.99, 13.99, 13.99, 13.99, 14.42, 13.99, 13.99, 13.99, 12.27, 12.27, 11.9, 11.9, 12.79, 12.39, 12.72, 12.72, 12.3, 12.3, 11.87, 11.87, 12.07, 12.07, 11.62, 11.62, 11.18, 11.62, 11.62, 11.62, 11.62, 10.0, 10.0, 10.4, 10.4, 10.4, 7.9, 7.59, 8.55, 5.46, 5.46, 5.21, 4.96, 4.71, 4.71, 4.46, 2.4, 2.26, 2.26, 2.12, 3.47, 2.8, 3.76, 5.37, 6.17, 7.15, 7.15, 7.6, 8.49, 8.49, 0.0, 5.69, 8.94, 9.39, 9.83, 10.28, 10.73, 10.73, 11.18, 13.86, 18.78, 21.86, 20.56, -10.19, -7.13, -4.65, -2.19, -2.6, -0.0, 8.05, 6.01, 4.96, 2.97, 2.97, 2.97, 12.52, 12.52, 12.14, 11.2, 11.2, 11.6, 11.99, 12.39, 13.44, 13.44, 13.15, 13.57, 13.99, 13.99, 13.99, 13.99, 13.99, 13.99, 13.99, 14.42, 14.42, 13.99, 13.99, 12.27, 11.9, 11.9, 11.9, 11.53, 13.15, 12.72, 12.72, 12.3, 12.3, 11.87, 11.87, 12.07, 12.07, 11.62, 11.62, 11.18, 11.18, 11.62, 11.62, 11.18, 10.0, 9.6, 9.6, 9.6, 7.59, 7.59, 7.59, 8.55, 5.46, 5.46, 5.46, 5.21, 4.96, 4.96, 4.71, 2.4, 2.4, 2.26, 3.72, 3.72, 4.02, 4.02, 4.74, 5.94, 7.15, 7.15, 8.05, 8.49, 8.94, 8.94, 6.32, 6.01, 8.91, 9.54, 10.14, 10.18, 10.18, 10.73, 12.96, 16.78, 20.49, 19.22, -13.42, -8.85, -7.26, -7.9, -6.2, -3.39, -0.0, 8.94, 0.0, 0.0, 0.0, 0.0, 12.52, 12.52, 12.14, 11.2, 11.2, 11.2, 11.6, 11.99, 13.01, 13.01, 13.15, 13.57, 13.57, 13.99, 13.99, 13.99, 13.99, 13.19, 13.19, 14.42, 14.42, 14.42, 14.42, 13.99, 13.57, 13.57, 13.57, 13.15, 13.15, 12.72, 12.3, 12.3, 11.87, 11.87, 11.87, 12.07, 12.07, 11.62, 11.18, 11.18, 11.18, 11.18, 11.18, 11.18, 9.6, 9.6, 9.6, 9.6, 7.27, 7.27, 7.27, 8.55, 5.7, 5.46, 5.46, 4.2, 4.2, 2.17, 2.06, 1.95, 1.95, 2.4, 2.26, 4.74, 4.02, 4.02, 4.74, 5.75, 6.17, 7.6, 7.6, 8.05, 8.49, 6.32, 6.32, 6.32, 7.81, 8.8, 9.75, 9.89, 10.18, 10.66, 12.07, 14.19, 17.86, 18.78, -15.04, -10.04, -8.03, -7.27, -7.59, -8.93, -8.55, -9.39, -6.64, -4.2, -4.2, -4.2, 12.27, 12.27, 12.27, 11.62, 11.6, 11.6, 11.6, 12.58, 13.01, 13.01, 13.15, 13.57, 13.57, 13.99, 13.99, 13.19, 13.19, 13.19, 13.19, 13.19, 14.42, 14.42, 14.42, 13.99, 13.57, 13.57, 13.57, 13.15, 12.72, 12.72, 12.3, 11.87, 11.87, 11.87, 11.45, 12.07, 12.07, 11.62, 11.62, 11.18, 11.18, 11.18, 11.18, 11.18, 9.6, 9.6, 9.6, 9.2, 7.27, 7.27, 7.27, 5.7, 5.7, 5.46, 5.46, 4.4, 2.28, 2.17, 2.17, 2.06, 1.95, 1.84, 1.84, 3.97, 4.29, 5.06, 5.06, 5.59, 5.75, 6.94, 7.21, 6.8, 5.69, 5.69, 3.8, 6.32, 7.81, 8.8, 9.75, 9.75, 9.97, 10.22, 10.96, 12.93, 16.54, 17.97, -16.09, -11.99, -7.81, -6.63, -7.15, -9.55, -10.41, -10.28, -8.91, -6.64, -6.64, -6.64, 12.27, 12.27, 11.62, 11.62, 12.04, 12.04, 12.04, 13.15, 13.01, 13.01, 13.15, 13.15, 13.57, 13.99, 13.99, 13.19, 13.19, 13.19, 13.19, 13.59, 13.59, 13.59, 13.59, 13.19, 13.57, 13.57, 13.15, 13.15, 12.72, 12.3, 12.3, 11.87, 11.87, 11.45, 11.45, 12.07, 11.62, 11.62, 11.62, 11.18, 11.18, 11.18, 11.18, 9.6, 9.6, 9.6, 9.6, 9.2, 7.27, 7.27, 7.27, 5.46, 5.7, 5.46, 5.46, 4.4, 2.28, 2.28, 2.17, 2.06, 2.06, 1.95, 1.95, 3.4, 4.29, 5.06, 5.06, 5.59, 5.59, 6.08, 7.21, 6.8, 7.15, 6.8, 7.2, 6.32, 6.64, 7.81, 9.13, 9.7, 10.18, 10.04, 10.96, 12.08, 15.05, 17.59, 0.0, -14.11, -10.0, -7.28, -8.05, -9.33, -10.08, -10.28, -8.91, -7.81, -7.81, -7.81, 12.27, 12.27, 11.62, 11.62, 12.04, 12.04, 12.71, 13.15, 13.01, 13.01, 13.15, 13.15, 13.57, 14.3, 14.75, 14.3, 14.3, 14.75, 14.75, 14.75, 13.59, 13.59, 13.59, 13.59, 12.79, 12.39, 12.39, 13.15, 12.72, 12.3, 12.3, 11.87, 11.87, 11.45, 12.07, 12.07, 12.07, 11.62, 11.62, 11.18, 11.18, 11.18, 10.73, 9.6, 9.6, 9.6, 9.2, 7.27, 7.27, 7.27, 7.27, 5.46, 5.46, 5.46, 4.4, 4.2, 2.28, 2.28, 2.28, 2.17, 2.06, 2.06, 1.95, 3.4, 4.56, 5.06, 5.06, 4.75, 5.84, 6.21, 6.4, 7.6, 7.15, 7.15, 7.6, 8.06, 6.32, 7.81, 9.11, 9.64, 10.18, 10.47, 10.7, 11.76, 14.1, 16.61, 14.75, -10.75, -13.23, -8.48, -8.91, -9.33, -9.83, -9.83, -9.11, -8.91, -8.91, -8.91, 12.27, 12.27, 11.62, 11.62, 11.62, 12.71, 12.71, 12.71, 13.01, 13.01, 13.44, 13.15, 14.3, 14.3, 14.3, 14.3, 14.3, 14.3, 14.75, 14.75, 13.19, 13.59, 13.59, 13.19, 12.79, 12.39, 12.39, 11.99, 11.99, 11.6, 11.6, 11.2, 10.8, 12.07, 12.07, 12.07, 12.07, 11.62, 11.62, 11.62, 11.18, 11.18, 11.18, 9.6, 9.6, 9.6, 9.2, 7.27, 7.27, 7.27, 6.95, 5.46, 5.46, 5.46, 4.4, 4.2, 2.28, 2.17, 2.28, 2.17, 2.17, 2.06, 1.95, 3.6, 4.56, 5.37, 4.75, 4.75, 6.18, 6.18, 6.21, 7.89, 6.71, 6.8, 7.15, 8.05, 7.6, 6.64, 7.81, 8.8, 9.75, 10.05, 10.7, 11.87, 13.25, 16.17, 16.12, 13.97, 0.0, -12.07, -9.39, -9.39, -9.83, -9.39, -9.26, -8.67, -8.67, -8.67, 12.27, 12.27, 12.71, 12.04, 12.71, 12.71, 12.71, 12.71, 12.71, 13.01, 13.01, 13.86, 14.3, 14.3, 14.3, 14.3, 14.3, 14.3, 14.3, 14.75, 14.75, 14.75, 13.19, 13.19, 12.79, 12.39, 12.39, 11.99, 11.99, 11.6, 11.6, 11.2, 12.07, 12.07, 12.07, 11.62, 11.62, 11.62, 11.62, 11.18, 11.18, 11.18, 10.0, 9.6, 9.6, 9.6, 7.59, 7.27, 7.27, 7.27, 5.46, 5.46, 5.46, 4.4, 4.2, 4.2, 2.28, 2.17, 2.17, 2.17, 2.17, 2.06, 2.06, 3.6, 4.83, 5.37, 4.75, 5.03, 5.15, 5.37, 5.82, 6.0, 5.81, 7.6, 6.71, 7.6, 7.6, 6.64, 7.81, 7.87, 9.2, 9.6, 10.38, 11.45, 12.3, 14.81, 15.46, 14.58, 13.15, 6.94, -8.93, -9.64, -9.26, -8.82, -8.77, -8.67, -8.67, -8.67, 12.27, 12.27, 12.71, 12.04, 12.71, 12.71, 12.71, 12.71, 12.71, 13.01, 13.01, 13.86, 14.3, 14.3, 14.3, 14.3, 14.3, 14.3, 14.3, 14.75, 14.75, 14.75, 13.19, 13.19, 12.79, 12.39, 12.39, 11.99, 11.99, 11.6, 11.6, 11.2, 12.07, 12.07, 12.07, 11.62, 11.62, 11.62, 11.62, 11.18, 11.18, 11.18, 10.0, 9.6, 9.6, 9.6, 7.59, 7.27, 7.27, 7.27, 5.46, 5.46, 5.46, 4.4, 4.2, 4.2, 2.28, 2.17, 2.17, 2.17, 2.17, 2.06, 2.06, 3.6, 4.83, 5.37, 4.75, 5.03, 5.15, 5.37, 5.82, 6.0, 5.81, 7.6, 6.71, 7.6, 8.0, 6.64, 7.81, 7.87, 9.2, 9.6, 10.7, 11.21, 11.71, 13.23, 14.7, 14.71, 13.37, 12.75, 10.35, 0.0, -2.97, -6.64, -6.64, -8.4, -8.4, -8.4]}, {"header": {"dx": 0.06612293990616946, "dy": 0.0552356325346848, "nx": 98, "ny": 59, "la1": 35.046912555036876, "la2": 31.78801023549047, "lo1": -121.43107172385933, "lo2": -114.95102361305473, "refTime": "2026041016", "parameterCategory": 1, "parameterNumber": 3}, "data": [14.47, 14.75, 14.6, 14.6, 14.75, 14.6, 13.19, 12.27, 13.7, 14.75, 13.44, 11.03, 12.52, 11.18, 10.28, 10.73, 10.18, 10.18, 9.6, 9.2, 8.4, 6.64, 4.96, 2.83, 2.83, 2.28, 2.28, 5.21, 2.83, 4.0, 0.0, -8.0, -7.07, -5.58, -6.36, -6.26, -7.15, -7.15, -7.6, -8.05, -8.49, -6.95, -5.2, -4.1, -2.81, -3.79, -3.78, -2.07, 0.0, 3.49, 5.8, 7.24, 7.95, 8.24, 9.17, 8.61, 8.91, 7.69, 7.69, 6.9, 6.9, 6.51, 6.3, 6.3, 6.3, 6.0, 5.33, 4.97, 4.38, 4.0, 3.25, 3.23, 3.55, 2.71, 2.81, 1.9, 0.96, 0.0, 0.0, -1.77, -2.02, -2.39, -2.97, -6.32, -8.0, -6.32, -4.71, -3.15, -2.98, -3.21, -5.2, -6.08, -6.94, -6.94, -6.31, -5.99, -5.43, -4.05, 14.03, 14.75, 14.6, 14.6, 14.75, 14.55, 13.59, 13.59, 13.7, 14.75, 13.15, 12.3, 11.62, 10.73, 11.62, 11.18, 9.75, 11.62, 10.28, 9.33, 9.2, 7.27, 6.64, 4.0, 3.6, 2.69, 2.83, 2.83, 2.83, 4.0, 3.6, 0.0, -7.6, -6.26, -6.26, -6.79, -7.63, -7.2, -8.49, -8.94, -6.95, -8.22, -4.1, -5.31, -4.54, -2.22, 0.0, 2.33, 5.96, 6.65, 7.56, 6.97, 6.97, 7.14, 7.82, 7.96, 7.69, 6.42, 6.42, 5.55, 6.0, 6.3, 6.3, 6.3, 6.3, 5.8, 5.16, 4.81, 3.68, 3.14, 3.36, 3.34, 2.72, 1.83, 1.97, 0.92, 0.89, 0.0, 0.0, -1.77, -2.02, -2.39, -2.97, -6.32, -8.0, -6.32, -4.71, -3.15, -2.98, -3.21, -5.2, -6.08, -6.94, -6.94, -6.31, -5.99, -5.43, -4.05, 14.03, 14.75, 14.6, 14.75, 14.75, 14.55, 14.42, 13.03, 14.11, 14.3, 12.27, 10.08, 11.62, 11.62, 10.73, 10.73, 11.18, 11.18, 10.6, 10.0, 8.18, 7.59, 7.9, 7.27, 6.32, 3.8, 0.0, 0.0, 0.0, 4.0, 5.69, 3.97, 2.26, 0.0, -4.74, -8.49, -7.63, -8.48, -9.39, -10.28, -10.4, -4.38, -3.16, -2.94, 0.0, 0.0, 4.88, 6.44, 7.79, 6.98, 6.71, 6.97, 6.7, 6.94, 6.44, 7.44, 6.0, 5.55, 5.55, 5.55, 5.55, 4.81, 6.3, 6.3, 6.3, 5.8, 4.99, 4.65, 4.36, 3.34, 3.25, 2.72, 0.89, 0.0, 0.0, 0.0, 0.0, 0.0, -2.28, -3.25, -2.82, -2.97, -4.0, -7.44, -8.94, -8.94, -7.2, -5.31, -4.74, -5.0, -6.88, -8.14, -8.05, -8.05, -6.48, -5.0, -3.45, -2.28, 14.03, 14.3, 14.75, 14.75, 14.75, 14.55, 14.42, 13.03, 13.7, 13.59, 12.07, 10.41, 12.07, 11.18, 11.18, 11.18, 11.62, 12.07, 11.45, 9.3, 9.3, 7.27, 5.0, 6.45, 7.59, 4.4, 0.0, 0.0, -6.32, 0.0, 7.6, 8.67, 7.67, 6.32, 2.83, 0.0, 0.0, -11.18, -11.62, -13.41, 0.0, 0.0, 0.0, 3.01, 2.87, 4.54, 5.99, 5.54, 5.98, 5.92, 6.45, 6.08, 6.08, 6.08, 6.08, 4.81, 4.81, 4.58, 4.58, 4.58, 4.43, 4.81, 6.08, 6.63, 6.94, 6.44, 6.21, 5.6, 5.38, 4.61, 3.58, 1.95, 0.0, -0.92, -1.84, -1.84, -1.84, -1.03, -2.8, -6.0, -5.21, -5.46, -6.32, -7.6, -8.05, -8.94, -8.3, -6.01, -6.42, -7.49, -9.09, -8.4, -8.05, -6.84, -5.52, -3.11, -2.04, -1.94, 14.03, 14.3, 14.75, 14.75, 14.75, 14.47, 14.11, 13.03, 13.7, 13.44, 12.07, 10.41, 11.62, 11.18, 10.73, 11.62, 11.62, 12.07, 12.07, 11.71, 11.87, 9.6, 7.59, 5.2, 5.95, 5.0, 4.4, 0.0, 0.0, 8.49, 8.94, 9.83, 11.28, 9.3, 6.71, 5.0, 6.2, 5.8, 15.65, 18.33, 17.19, 9.67, 9.12, 4.24, 4.1, 3.82, 5.2, 5.54, 5.77, 5.4, 5.08, 5.08, 5.08, 5.08, 5.08, 4.81, 4.43, 4.58, 4.24, 3.53, 3.73, 5.27, 7.28, 7.85, 8.24, 7.68, 7.18, 6.72, 7.03, 6.73, 5.34, 4.15, 2.28, 0.0, -2.45, -3.82, -4.32, -2.08, -3.1, -5.63, -6.4, -6.64, -6.52, -8.06, -7.6, -8.49, -7.76, -7.68, -9.48, -10.61, -9.27, -8.31, -7.1, -5.95, -3.3, -2.04, -1.75, -2.7, 14.03, 14.3, 14.3, 14.75, 14.75, 14.47, 14.11, 12.65, 13.7, 13.44, 12.07, 9.75, 11.18, 10.73, 11.18, 11.18, 11.62, 12.07, 12.07, 12.52, 12.52, 11.71, 12.72, 9.17, 8.53, 8.53, 8.22, 10.0, 9.6, 9.6, 9.39, 6.64, 4.4, 3.82, 6.9, 7.44, 7.19, 7.13, 16.54, 16.79, 16.09, 13.88, 9.77, 6.94, 6.94, 8.01, 7.02, 7.02, 5.4, 5.4, 4.08, 4.24, 4.24, 3.96, 4.1, 3.73, 3.41, 3.41, 3.25, 3.53, 4.1, 8.01, 8.53, 9.16, 9.42, 8.85, 8.32, 8.1, 7.44, 6.88, 5.91, 5.81, 5.26, 4.01, 0.0, -3.36, -4.23, -4.23, -2.82, -5.99, -7.64, -7.58, -7.76, -7.42, -8.0, -8.8, -10.0, -11.34, -11.94, -11.2, -9.62, -7.93, -7.14, -4.71, -2.58, -2.7, -3.25, -4.62, 13.28, 14.3, 14.3, 14.75, 14.75, 14.47, 13.7, 12.65, 13.28, 13.59, 12.07, 9.54, 10.73, 10.73, 12.07, 11.18, 12.07, 12.52, 12.52, 12.52, 12.96, 14.3, 14.31, 15.18, 12.65, 12.27, 14.42, 13.57, 10.79, 8.93, 7.59, 4.2, 3.11, 3.11, 5.2, 8.66, 8.94, 8.31, 12.39, 11.99, 13.88, 12.96, 11.99, 10.73, 11.52, 9.84, 8.85, 7.68, 6.4, 5.6, 5.4, 4.08, 3.96, 3.96, 2.45, 2.32, 2.32, 1.17, 1.08, 2.54, 5.6, 9.42, 9.67, 10.24, 10.04, 9.36, 8.38, 7.43, 6.96, 6.0, 4.87, 5.15, 4.87, 4.42, 2.52, 0.0, -1.72, -3.25, -4.4, -5.72, -7.58, -8.95, -9.75, -9.97, -10.45, -11.66, -12.96, -13.16, -12.02, -10.25, -9.62, -8.85, -4.71, -3.8, -4.0, -3.32, -4.3, -5.57, 12.87, 14.03, 14.3, 14.3, 14.75, 14.47, 13.7, 13.7, 12.27, 12.45, 11.18, 9.64, 10.28, 11.18, 12.52, 11.18, 12.07, 12.96, 12.96, 13.41, 13.41, 13.41, 13.41, 15.18, 13.59, 13.59, 13.99, 15.27, 10.43, 9.48, 8.53, 8.53, 8.85, 8.85, 7.9, 8.85, 6.67, 6.2, 9.67, 11.62, 12.3, 13.86, 16.09, 16.48, 14.39, 11.9, 9.17, 8.02, 7.41, 7.19, 5.2, 4.9, 3.96, 2.45, 1.25, 0.0, 0.0, 0.0, 0.0, 1.71, 8.22, 10.38, 10.27, 10.4, 10.04, 9.8, 7.44, 6.21, 3.82, 3.44, 3.25, 3.25, 1.72, 1.89, 1.08, 0.0, 0.0, -1.38, -3.96, -6.95, -11.69, -10.96, -10.52, -11.03, -11.71, -12.65, -13.11, -12.56, -11.21, -9.02, -8.82, -6.32, -5.37, -7.07, -4.71, -5.06, -5.2, -5.98, 13.59, 14.11, 14.03, 14.03, 14.75, 14.47, 13.7, 13.7, 12.27, 12.04, 11.4, 11.62, 12.96, 12.96, 12.52, 12.52, 12.96, 13.41, 13.41, 13.41, 13.41, 13.41, 13.86, 14.3, 12.58, 10.0, 8.8, 12.39, 7.0, 4.52, 9.8, 14.42, 14.42, 11.53, 8.85, 6.97, 7.9, 9.3, 9.97, 10.28, 12.3, 13.99, 14.75, 12.52, 11.28, 10.0, 9.77, 9.17, 8.37, 7.82, 7.79, 5.86, 3.47, 2.37, 0.0, 0.0, -2.28, -1.28, 0.0, 5.2, 10.6, 10.62, 9.97, 10.62, 11.09, 8.78, 6.2, 4.65, 2.71, 0.86, 0.81, 0.7, 0.0, 0.0, -0.89, -1.03, -0.97, -2.16, -3.36, -5.78, -9.92, -12.56, -9.9, -10.55, -10.95, -11.09, -11.6, -10.12, -8.02, -6.95, -5.59, -5.94, -6.71, -7.47, -5.53, -5.52, -6.08, -6.86, 13.59, 13.67, 14.11, 13.28, 14.47, 14.75, 13.7, 12.65, 12.27, 10.37, 10.01, 12.71, 12.07, 13.41, 13.86, 13.41, 14.3, 14.75, 14.75, 13.41, 12.96, 12.96, 13.86, 14.3, 14.3, 11.62, 9.39, 9.6, 6.6, 6.4, 13.19, 16.54, 15.65, 13.15, 8.53, 6.2, 7.59, 9.39, 11.62, 12.3, 12.3, 12.3, 11.62, 10.28, 9.2, 9.58, 8.22, 7.85, 7.96, 7.62, 7.82, 6.92, 5.98, 4.32, 2.28, 0.0, -1.64, -6.45, 0.0, 11.62, 11.18, 10.22, 11.28, 12.39, 11.29, 7.95, 6.2, 4.1, 1.6, 0.0, -0.81, -0.7, -1.5, -1.72, -2.64, -3.56, -3.97, -4.81, -4.33, -4.18, -7.8, -14.79, -12.25, -7.82, -7.44, -7.81, -8.12, -7.27, -6.17, -5.2, -5.37, -8.24, -6.58, -6.99, -6.01, -6.57, -7.1, -6.11, 13.59, 13.59, 14.11, 13.99, 13.99, 14.75, 14.47, 13.7, 11.44, 10.73, 9.17, 11.53, 13.44, 13.86, 14.3, 14.3, 15.65, 14.84, 13.02, 15.19, 16.54, 17.43, 16.99, 14.75, 14.75, 12.96, 10.28, 10.28, 11.6, 12.39, 12.96, 12.96, 12.07, 11.18, 9.3, 8.53, 11.03, 11.62, 11.71, 13.15, 14.3, 13.41, 11.62, 11.18, 10.18, 8.82, 7.59, 7.15, 5.92, 6.71, 8.22, 8.97, 9.34, 8.64, 7.59, 7.9, 8.22, -12.07, -5.4, 11.28, 11.18, 11.02, 13.37, 13.43, 12.09, 9.87, 8.41, 6.2, 3.04, 0.0, -1.9, -1.71, -2.81, -3.0, -4.08, -4.74, -5.8, -6.4, -6.08, -4.98, -3.69, -14.39, -15.2, -11.6, -6.87, -5.06, -5.53, -4.98, -5.21, -4.94, -5.44, -8.03, -7.6, -6.21, -7.35, -7.24, -5.9, -6.01, 13.86, 13.59, 14.03, 13.99, 13.99, 14.55, 14.75, 14.47, 13.28, 10.73, 8.05, 6.2, 10.43, 13.57, 13.41, 11.87, 10.41, 12.27, 11.38, 10.19, 11.7, 12.87, 13.02, 14.39, 13.41, 12.96, 12.52, 7.81, 10.6, 10.28, 10.73, 11.62, 11.62, 9.83, 10.73, 10.28, 10.28, 12.07, 12.52, 13.41, 13.86, 13.41, 12.07, 11.18, 10.28, 9.26, 9.96, 8.58, 9.2, 9.2, 9.38, 10.4, 10.63, 11.6, 11.36, 11.36, 11.97, 8.85, -11.2, 9.2, 10.73, 12.81, 14.31, 13.86, 13.62, 13.38, 13.16, 12.16, 9.8, 8.05, 5.27, 1.38, -3.14, -6.67, -5.8, -6.0, -7.19, -7.51, -5.6, -2.2, 0.0, -9.48, -12.52, -14.75, -9.2, -6.64, -5.2, -5.46, -4.74, -4.74, -6.4, -6.87, -6.52, -5.77, -7.59, -7.36, -5.21, -4.22, 13.86, 13.86, 14.03, 14.55, 14.55, 14.18, 14.6, 14.3, 14.3, 12.39, 11.09, 8.58, 6.6, 10.75, 15.65, 15.2, 13.57, 11.16, 9.17, 8.05, 9.48, 9.48, 8.05, 9.48, 11.16, 11.16, 9.48, 11.16, 10.04, 9.33, 10.73, 11.62, 11.62, 10.6, 9.75, 9.33, 9.2, 11.18, 11.62, 12.07, 12.52, 12.52, 11.84, 9.75, 9.64, 8.94, 9.83, 10.08, 9.64, 9.13, 8.37, 8.56, 8.99, 9.49, 11.28, 11.3, 10.79, 10.3, 2.82, 7.53, 11.95, 13.37, 13.67, 13.23, 13.72, 14.03, 14.21, 14.75, 13.7, 12.81, 12.16, 10.77, 12.52, -5.0, -2.93, -0.0, -0.0, -12.07, -12.52, 0.0, 0.0, -8.22, -12.14, -13.41, -12.27, -10.73, -7.59, -6.3, -5.72, -5.1, -5.36, -5.2, -4.42, -5.53, -6.7, -6.92, -5.1, -3.97, 12.39, 13.86, 13.86, 14.3, 14.55, 14.11, 14.16, 14.16, 14.11, 14.3, 14.03, 11.44, 8.85, 10.75, 11.38, 16.09, 16.09, 14.42, 12.27, 10.12, 10.12, 10.12, 8.85, 11.06, 11.06, 8.68, 4.52, 4.52, 4.38, 5.8, 8.22, 11.62, 12.07, 10.73, 10.28, 9.83, 9.39, 10.28, 10.28, 10.73, 11.62, 10.84, 10.0, 10.0, 9.54, 9.54, 8.05, 9.83, 10.73, 10.41, 9.54, 10.73, 13.41, 13.86, 11.87, 10.4, 8.23, 6.08, 6.95, 9.83, 11.76, 13.41, 13.41, 12.96, 12.07, 12.07, 12.04, 11.96, 12.04, 10.66, 11.34, 10.97, 12.39, -2.28, -1.93, -0.0, -0.0, -0.0, -6.95, -9.83, -9.83, -9.2, -12.14, -14.3, -12.52, -12.45, -11.12, -9.2, -7.44, -5.37, -6.11, -4.56, -4.56, -4.71, -5.76, -5.2, -4.4, -3.91, 12.39, 13.15, 13.86, 14.3, 14.3, 14.11, 14.11, 14.16, 14.16, 14.16, 14.3, 14.75, 13.7, 12.16, 13.39, 15.69, 16.54, 15.69, 13.39, 13.02, 10.75, 10.75, 9.39, 11.38, 8.93, 9.17, 3.9, 0.0, 0.0, 0.0, 0.0, 0.0, 0.0, 10.73, 10.28, 9.83, 10.28, 9.39, 11.18, 10.28, 10.18, 9.67, 8.93, 8.93, 7.81, 8.67, 8.67, 8.24, 8.94, 9.83, 10.28, 10.28, 9.83, 8.49, 8.49, 5.69, 0.0, 0.0, 5.25, 12.14, 10.7, 11.03, 11.02, 11.18, 11.18, 10.73, 11.18, 11.02, 9.2, 8.93, 7.72, 7.18, 4.1, -3.39, -0.0, 6.95, 9.2, 7.27, 0.0, -11.18, -11.18, -10.84, -10.41, -10.18, -9.97, -12.27, -13.15, -11.18, -8.91, -7.81, -6.95, -5.59, -5.3, -4.71, -4.0, -4.12, -3.99, -3.99, 9.8, 12.39, 13.15, 14.3, 14.3, 14.03, 14.11, 14.11, 14.11, 14.16, 14.6, 14.75, 14.75, 14.9, 15.18, 15.27, 16.54, 16.99, 16.12, 11.7, 8.93, 8.93, 8.93, 9.17, 5.23, 5.23, 0.0, 0.0, 0.0, 0.0, 0.0, 0.0, 0.0, 0.0, 10.28, 8.0, 4.4, 0.0, 0.0, 10.73, 8.55, 8.93, 7.59, 8.18, 7.81, 8.06, 8.24, 7.63, 7.63, 8.49, 8.49, 8.49, 8.49, 8.49, 8.05, 7.2, 0.0, 0.0, 8.22, 11.62, 10.14, 8.93, 9.75, 9.33, 9.39, 9.39, 8.49, 9.33, 8.82, 7.59, 4.78, 2.1, 0.0, -0.0, 9.3, 10.75, 9.66, 9.42, 7.1, 0.0, -12.58, -12.52, -12.07, -11.62, -10.73, -8.4, -10.28, -9.83, -8.94, -8.48, -7.64, -6.06, -6.01, -5.13, -5.04, -5.13, -5.21, -5.21, 9.8, 9.8, 11.9, 13.44, 13.59, 14.03, 14.03, 14.47, 14.3, 14.11, 14.55, 14.6, 15.2, 15.2, 15.65, 15.65, 15.65, 16.54, 15.19, 7.6, 0.0, 0.0, 0.0, 0.0, 0.0, 0.0, 0.0, 0.0, 0.0, 0.0, 0.0, 0.0, 0.0, 0.0, 0.0, 6.32, 4.2, 0.0, 0.0, 10.28, 9.6, 7.44, 9.33, 7.6, 7.81, 8.48, 8.48, 8.49, 8.49, 8.94, 8.94, 9.39, 9.39, 9.39, 9.39, 9.39, 9.83, 10.28, 11.18, 11.62, 11.18, 9.2, 8.8, 9.39, 9.39, 8.05, 8.94, 7.6, 6.64, 4.6, 1.61, 0.0, 0.0, 11.62, 11.53, 12.18, 12.56, 11.53, 10.3, 7.28, 2.43, -13.86, -11.99, -11.2, -11.62, -9.83, -8.49, -8.49, -8.41, -7.37, -7.96, -6.7, -7.32, -6.95, -6.88, -6.58, -6.24, -6.24, 7.69, 9.8, 11.9, 12.79, 12.39, 12.39, 13.88, 13.88, 14.75, 14.75, 14.75, 14.99, 14.99, 15.2, 15.2, 15.2, 15.65, 16.09, 11.7, 5.23, 0.0, 0.0, 0.0, 0.0, 0.0, 0.0, 0.0, 0.0, 0.0, 0.0, 0.0, 0.0, 0.0, 0.0, 0.0, 0.0, 6.32, 7.27, 10.73, 10.28, 9.83, 8.91, 8.06, 8.06, 8.48, 8.4, 8.94, 8.94, 9.39, 9.39, 9.39, 9.83, 9.83, 9.83, 9.83, 9.83, 9.83, 10.28, 10.73, 11.18, 11.18, 10.28, 9.83, 9.39, 9.39, 8.06, 5.69, 0.0, -3.11, -1.58, 0.0, 1.03, 3.41, 9.06, 12.03, 12.57, 11.06, 9.81, 8.28, 7.76, 6.6, 0.0, -9.8, -11.2, -11.18, -8.94, -8.67, -8.49, -8.41, -9.89, -9.04, -7.6, -7.85, -8.32, -7.64, -7.35, -6.64, -6.64, 7.69, 7.69, 11.53, 12.79, 12.39, 12.39, 12.79, 13.88, 14.75, 14.75, 14.75, 15.2, 15.34, 15.34, 15.2, 16.99, 14.75, 14.84, 11.06, 6.8, 0.0, 0.0, 11.06, 11.7, 10.75, 0.0, 0.0, 0.0, 0.0, 0.0, 0.0, 0.0, 0.0, 0.0, 0.0, 0.0, 0.0, 5.21, 9.33, 11.18, 10.28, 10.28, 10.28, 9.83, 9.83, 9.83, 9.83, 9.39, 9.39, 9.39, 9.83, 9.83, 9.83, 9.83, 9.83, 10.28, 9.83, 0.0, 0.0, 7.9, 7.59, 10.28, 9.83, 8.49, 8.94, 8.49, 8.06, 0.0, -3.11, -1.71, 0.0, 3.58, 6.49, 7.46, 7.35, 4.86, 2.57, 1.17, 2.07, 2.07, 3.93, 0.0, -4.38, -8.85, -10.4, -10.28, -9.97, -10.96, -10.62, -10.65, -9.74, -8.79, -8.8, -8.88, -8.42, -8.06, -8.42, -8.42, 7.69, 7.69, 9.8, 9.8, 9.8, 9.8, 12.79, 13.88, 14.75, 14.75, 14.75, 15.2, 15.34, 15.34, 15.18, 15.2, 14.75, 14.75, 13.99, 13.59, 15.19, 16.09, 16.09, 15.59, 14.79, 11.7, 16.54, 0.0, 0.0, 0.0, 0.0, 0.0, 0.0, 0.0, 0.0, 0.0, 0.0, 3.68, 5.7, 7.07, 7.44, 8.91, 8.91, 8.91, 8.0, 10.73, 9.83, 9.83, 9.39, 9.39, 9.39, 9.39, 9.39, 9.39, 8.94, 9.39, 0.0, 0.0, 0.0, 0.0, 0.0, 9.83, 9.83, 8.4, 8.06, 8.49, 8.94, 6.64, 1.69, 3.68, 3.94, 5.09, 5.96, 4.27, 0.85, -2.79, -5.98, -7.76, -4.3, -2.31, 0.0, 0.0, -0.0, -3.25, -3.82, -7.9, -10.28, -9.75, -10.6, -10.62, -10.32, -10.88, -10.62, -9.66, -8.8, -8.82, -8.82, -8.82, 7.69, 7.69, 7.69, 7.69, 7.69, 9.8, 13.44, 14.3, 14.75, 15.2, 14.47, 14.9, 15.18, 15.18, 15.18, 15.18, 14.31, 13.99, 12.3, 14.42, 16.12, 16.05, 15.69, 13.39, 12.01, 9.42, 11.38, 12.01, 7.8, 0.0, 0.0, 0.0, 0.0, 0.0, 0.0, 0.0, 0.0, 0.0, 0.0, 3.25, 2.97, 5.46, 6.95, 6.95, 6.64, 7.59, 9.83, 9.83, 9.39, 9.39, 8.94, 8.94, 8.94, 9.39, 9.83, 8.0, 0.0, 0.0, -7.59, 0.0, 0.0, 0.0, 6.95, 6.95, 8.0, 8.0, 9.39, 9.33, 7.59, 6.76, 6.96, 6.09, 5.16, 1.74, -2.66, -6.16, -12.01, -12.01, -9.81, -7.88, -4.12, -2.57, -0.0, -0.0, -0.0, -0.0, -7.59, -9.83, -9.2, -9.2, -8.4, -11.2, -12.04, -9.42, -8.82, -8.24, -8.24, -8.24, 4.38, 4.38, 4.38, 7.69, 7.69, 11.53, 13.59, 14.3, 14.75, 15.2, 14.9, 14.9, 14.9, 15.18, 15.18, 15.18, 14.75, 14.31, 13.99, 15.69, 14.13, 13.76, 13.39, 11.38, 9.42, 9.92, 9.67, 7.4, 5.23, 5.37, 5.51, 0.0, 0.0, 0.0, 0.0, 0.0, 0.0, 0.0, 0.0, 0.0, 0.0, 3.11, 2.97, 2.97, 4.96, 5.69, 7.27, 9.83, 9.39, 8.94, 8.49, 8.49, 8.49, 8.94, 8.94, 6.95, 4.4, 0.0, -10.73, -9.83, -8.94, -0.0, 4.2, 4.2, 6.64, 9.39, 9.39, 8.8, 8.55, 10.0, 9.42, 9.71, 8.99, 4.22, -9.27, -11.44, -15.01, -15.25, -13.95, -11.06, -7.82, -3.58, -3.69, 0.0, -0.0, -0.0, -7.27, -9.39, -7.81, -9.3, -9.3, -9.3, -10.4, -8.6, -8.06, -7.6, -8.17, -8.17, 0.0, 0.0, 4.38, 4.38, 7.69, 12.39, 14.03, 14.11, 14.75, 15.2, 14.9, 14.9, 15.34, 15.34, 15.18, 15.18, 13.59, 13.19, 14.42, 15.69, 16.12, 11.38, 10.75, 8.43, 9.17, 5.51, 5.65, 4.23, 4.12, 3.9, 4.01, 4.01, 0.0, 0.0, 0.0, 0.0, 0.0, 0.0, 0.0, 0.0, 0.0, 3.25, 3.11, 4.96, 4.46, 4.22, 6.95, 0.0, 8.94, 8.49, 8.05, 8.49, 8.49, 8.49, 8.94, 8.0, 6.64, 4.6, -10.73, -8.94, -8.94, -0.0, 4.2, 6.32, 8.0, 9.39, 9.39, 8.4, 6.95, 8.91, 10.6, 8.85, 8.4, -0.0, -5.0, -9.83, -13.35, -14.79, -15.41, -14.51, -10.75, -7.58, -2.28, 0.0, 13.86, 8.53, 7.27, 9.39, 0.0, -11.62, -11.62, -7.9, -7.27, -8.48, -8.06, -7.76, -7.76, -7.76, 0.0, 0.0, 0.0, 4.38, 11.53, 12.87, 13.67, 14.11, 14.55, 14.9, 14.9, 15.34, 15.34, 15.34, 15.34, 13.99, 13.99, 13.19, 13.99, 13.39, 13.76, 12.01, 11.38, 4.66, 4.81, 5.23, 5.51, 5.51, 5.51, 4.12, 3.9, 3.9, 3.9, 0.0, 0.0, 0.0, 0.0, 0.0, 0.0, 0.0, 3.25, 3.11, 3.25, 5.7, 4.96, 4.22, 6.95, 6.64, 8.94, 8.94, 8.94, 8.49, 8.49, 8.49, 8.49, 7.6, 6.7, 6.32, 0.0, -10.28, -7.6, -0.0, 6.01, 7.6, 8.0, 9.39, 9.39, 6.95, 4.0, 4.4, 0.0, 0.0, 0.0, 1.87, 0.0, -10.12, -12.52, -12.14, -13.7, -13.99, -13.39, -9.42, -5.46, 0.0, 11.6, 11.28, 9.6, 8.18, 4.2, -2.97, -9.39, -9.39, 0.0, -6.32, -7.6, -7.95, -8.17, -8.17, 0.0, 0.0, 0.0, 0.0, 9.8, 12.39, 13.15, 14.11, 14.55, 14.9, 14.9, 14.9, 15.34, 14.53, 14.53, 13.99, 13.99, 13.59, 13.59, 13.39, 13.39, 12.01, 12.01, 9.17, 8.68, 4.95, 5.37, 5.51, 5.51, 4.12, 4.12, 4.01, 0.0, 0.0, 0.0, 0.0, 0.0, 0.0, 0.0, 0.0, 2.49, 3.11, 3.11, 3.25, 5.46, 5.21, 4.46, 6.01, 6.32, 5.21, 6.32, 7.27, 6.01, 8.05, 6.01, 6.01, 7.6, 5.37, 6.32, 0.0, -9.83, -3.8, -0.0, 8.4, 9.39, 9.39, 8.91, 8.4, 4.6, -3.25, -5.75, -3.41, 0.0, 1.87, 3.16, 3.16, -3.59, -16.76, -14.6, -11.34, -13.19, -12.0, -9.89, -4.81, 6.0, 10.6, 7.27, 4.96, -0.0, -2.83, -6.95, -9.83, -6.95, -6.64, -7.44, -8.48, -8.37, -8.37, 0.0, 0.0, 0.0, 6.2, 11.53, 13.44, 13.59, 13.57, 14.55, 14.47, 14.9, 14.75, 15.18, 15.18, 13.99, 13.99, 13.99, 13.99, 13.99, 11.06, 11.06, 11.38, 9.42, 9.42, 9.17, 8.93, 8.93, 5.37, 5.51, 4.23, 4.12, 0.0, 0.0, 0.0, 0.0, 0.0, 0.0, 0.0, 0.0, 0.0, 0.0, 0.0, 3.11, 3.11, 3.25, 3.25, 3.11, 2.69, 2.83, 2.97, 2.97, 3.8, 6.95, 6.01, 6.01, 6.01, 8.05, 7.2, 5.69, 4.0, 0.0, 0.0, -0.0, 8.91, 9.39, 8.94, 9.75, 10.18, 0.0, -7.27, -6.44, -3.56, 0.0, 1.78, 4.78, 6.95, 4.61, -9.95, -15.71, -12.27, -12.6, -13.34, -11.44, -7.93, 0.0, 10.73, 6.64, 2.69, -0.0, -0.0, -0.0, -9.75, -10.73, -9.75, -8.18, -8.4, -9.03, -9.03, 0.0, 0.0, 0.0, 6.2, 13.15, 13.59, 13.59, 13.59, 13.28, 14.47, 14.9, 14.75, 15.18, 14.75, 13.99, 13.99, 13.99, 12.52, 12.52, 11.06, 11.06, 11.06, 11.38, 9.17, 9.17, 9.17, 8.93, 9.17, 4.12, 4.12, 4.12, 4.12, 4.12, 4.12, 0.0, 0.0, 0.0, 0.0, 0.0, 0.0, 0.0, 0.0, 0.0, 3.11, 3.25, 3.25, 0.0, 0.0, 0.0, 0.0, 2.83, 2.83, 3.6, 2.4, 5.69, 6.8, 8.05, 7.6, 5.06, 4.22, 4.2, 4.2, 10.73, 8.48, 9.83, 9.39, 10.18, 7.27, 0.0, -3.25, -5.75, -4.08, -2.06, 0.0, 4.4, 7.04, 7.83, 0.0, -16.09, -11.62, -11.99, -13.19, -11.9, -9.17, -5.98, 0.0, 9.83, -0.0, -0.0, 6.32, 8.0, 7.27, -11.62, -11.62, -10.84, -9.96, -10.18, -10.18, 0.0, 0.0, 0.0, 9.8, 13.44, 13.59, 13.59, 13.59, 13.57, 13.28, 13.7, 14.75, 14.75, 14.75, 14.42, 13.59, 13.99, 12.52, 12.52, 12.52, 11.06, 11.06, 11.06, 11.06, 8.93, 8.93, 8.93, 8.93, 7.4, 7.4, 7.4, 7.4, 4.12, 4.12, 0.0, 0.0, 0.0, 0.0, 0.0, 0.0, 0.0, 0.0, 0.0, 0.0, 0.0, 0.0, 0.0, 0.0, 0.0, 0.0, 0.0, 0.0, 3.8, 3.4, 5.06, 6.8, 7.6, 7.6, 6.4, 5.37, 2.54, 4.0, 9.83, 9.39, 9.39, 11.18, 4.8, 0.0, 0.0, 0.0, -2.19, -4.24, -3.6, -2.24, 0.0, 0.0, 1.09, 0.0, -10.82, -11.09, -10.47, -13.02, -13.03, -10.18, -6.21, 0.0, 7.27, 6.01, 9.39, 9.83, 10.28, 10.84, -0.0, -11.87, -12.52, -11.84, -11.03, -11.03, 0.0, 0.0, 0.0, 7.69, 12.39, 13.59, 13.86, 14.11, 14.11, 13.57, 13.7, 14.11, 13.99, 15.18, 15.18, 14.42, 13.59, 12.16, 12.16, 12.16, 11.06, 11.06, 11.06, 11.06, 8.68, 8.68, 8.68, 8.93, 9.17, 7.4, 7.4, 7.4, 4.01, 4.01, 0.0, 0.0, 0.0, 0.0, 0.0, 0.0, 0.0, 0.0, 0.0, 0.0, 0.0, 0.0, 0.0, 0.0, 0.0, 0.0, 0.0, 0.0, 0.0, 0.0, 3.0, 4.74, 7.6, 7.6, 6.4, 5.37, 3.4, 8.0, 9.39, 9.39, 10.28, 7.27, 3.39, 0.0, -4.4, -3.25, -1.84, -2.72, -3.29, -5.36, -7.93, -7.78, -5.96, -5.99, -11.09, -10.35, -9.39, -12.45, -13.03, -11.44, -7.54, -3.39, 0.0, 4.6, 7.59, 11.18, 11.18, 11.62, 12.07, -0.0, -13.41, -12.58, -11.45, -11.45, 0.0, 0.0, 0.0, 6.2, 11.09, 13.59, 13.67, 14.11, 14.11, 13.57, 13.28, 13.03, 14.11, 13.99, 15.61, 15.18, 12.65, 13.59, 12.16, 10.75, 9.39, 9.39, 9.39, 9.39, 7.0, 8.68, 8.43, 8.68, 8.93, 7.2, 3.9, 3.9, 3.9, 3.9, 4.01, 0.0, 0.0, 0.0, 0.0, 0.0, 0.0, 0.0, 0.0, 0.0, 0.0, 0.0, 0.0, 0.0, 0.0, 0.0, 0.0, 0.0, 0.0, 0.0, 0.0, 0.0, 7.15, 7.15, 6.8, 6.79, 7.15, 8.94, 7.6, 8.4, 8.4, 6.64, 3.11, 0.0, -6.64, -6.95, -6.98, -4.24, -1.08, -2.9, -7.15, -10.13, -9.47, -7.21, -11.44, -12.39, -13.41, -12.58, -11.75, -10.86, -8.3, -6.0, 0.0, 0.0, 6.94, 11.87, 12.07, 12.52, 12.14, 12.96, 0.0, -12.3, -11.62, -11.62, 0.0, 0.0, 2.72, 7.13, 11.09, 12.87, 13.67, 14.11, 13.57, 13.7, 13.7, 12.27, 13.03, 14.11, 13.99, 13.99, 13.99, 13.02, 12.52, 11.06, 9.39, 9.39, 9.39, 9.39, 7.0, 8.68, 8.43, 8.18, 8.43, 4.95, 5.09, 4.95, 3.79, 3.79, 3.9, 0.0, 0.0, 0.0, 0.0, 0.0, 0.0, 0.0, 0.0, 0.0, 0.0, 0.0, 0.0, 0.0, 0.0, 0.0, 0.0, 0.0, 0.0, 0.0, 0.0, 0.0, 0.0, 7.6, 7.6, 7.15, 6.4, 7.6, 6.01, 8.94, 6.32, 3.8, 3.8, 0.0, -3.25, -7.27, -7.68, -5.52, -1.25, 0.0, -2.72, -8.2, -10.17, -8.06, -6.4, -9.77, -16.54, -16.54, -14.11, -10.75, -8.68, -7.2, -2.57, 0.0, 0.0, 3.14, 7.19, 10.79, 9.17, 7.51, 9.17, 0.0, -10.41, -10.41, 2.2, 2.2, 2.2, 7.13, 9.8, 11.88, 13.15, 13.57, 13.28, 13.7, 13.7, 13.7, 13.7, 13.42, 14.53, 13.99, 13.99, 14.39, 11.38, 11.38, 9.66, 9.66, 9.39, 9.39, 7.0, 8.68, 8.43, 7.93, 5.09, 4.66, 4.95, 5.09, 3.9, 3.79, 3.79, 3.9, 0.0, 0.0, 0.0, 0.0, 0.0, 0.0, 0.0, 0.0, 0.0, 0.0, 0.0, 0.0, 0.0, 0.0, 0.0, 0.0, 0.0, 0.0, 0.0, 0.0, 0.0, 0.0, 0.0, 5.06, 3.0, -0.0, 0.0, 0.0, 6.32, 3.8, 2.54, 0.0, 0.0, -2.6, -5.46, -5.7, -3.04, 0.0, 0.0, -4.97, -8.51, -7.93, -6.53, -6.37, -8.43, -16.12, -16.54, -11.38, -6.14, -5.23, -2.4, 0.0, 0.0, 0.0, 2.45, 4.65, 6.44, 6.44, 6.94, 0.0, -3.82, -3.82, 2.2, 2.2, 4.24, 6.2, 8.66, 11.88, 12.87, 13.28, 13.28, 13.7, 13.7, 13.7, 13.7, 13.7, 13.42, 13.99, 13.99, 13.99, 13.99, 11.38, 9.66, 9.66, 9.66, 7.0, 6.8, 8.43, 8.43, 7.93, 6.2, 4.95, 4.66, 4.95, 3.9, 3.9, 3.9, 3.9, 0.0, 0.0, 0.0, 0.0, 0.0, 0.0, 0.0, 0.0, 0.0, 0.0, 0.0, 0.0, 0.0, 0.0, 0.0, 0.0, 0.0, 0.0, 0.0, 0.0, 0.0, 0.0, 0.0, -0.0, -0.0, -0.0, 0.0, 0.0, 6.01, 5.69, 3.6, 0.0, 0.0, 0.0, 0.0, 0.0, -6.97, -6.4, -2.72, -1.06, -3.32, -9.42, -8.53, -5.36, -3.58, -3.9, -3.16, -4.01, -3.33, 0.0, 0.0, 0.0, 0.0, 1.83, 2.06, 3.82, 5.4, 5.6, 3.44, 0.0, 0.0, 0.0, 2.2, 2.2, 4.24, 6.9, 7.13, 9.8, 11.09, 11.44, 11.44, 11.8, 13.7, 14.11, 13.7, 13.7, 13.03, 12.52, 13.99, 13.99, 13.99, 11.38, 9.66, 9.92, 9.66, 7.2, 6.8, 6.8, 8.43, 8.18, 6.6, 6.6, 6.6, 3.69, 3.79, 3.79, 3.9, 3.9, 0.0, 0.0, 0.0, 0.0, 0.0, 0.0, 0.0, 0.0, 0.0, 0.0, 0.0, 0.0, 0.0, 0.0, 0.0, 0.0, 0.0, 0.0, -5.69, -5.06, -6.71, 0.0, -5.36, -4.11, -0.0, 0.0, 0.0, 8.49, 7.6, 7.6, 5.69, 3.6, 0.0, 0.0, 1.93, 0.0, -7.24, -7.89, -6.18, -1.97, 1.07, 1.58, -2.2, -4.87, -3.88, -2.8, -1.65, -1.88, 0.0, 0.0, 0.0, 0.0, 0.0, 1.55, 3.32, 3.82, 3.32, 3.32, 1.71, 1.71, 0.0, 0.0, 2.2, 2.2, 4.24, 6.9, 7.13, 8.31, 9.8, 11.44, 11.8, 11.8, 14.11, 14.11, 14.11, 13.7, 12.65, 12.16, 12.16, 13.59, 12.16, 11.06, 9.66, 9.66, 9.66, 7.2, 7.0, 6.8, 8.43, 4.66, 4.66, 3.69, 3.69, 3.69, 3.69, 3.69, 3.79, 3.79, 0.0, 0.0, 0.0, 0.0, 0.0, 0.0, 0.0, 0.0, 0.0, 0.0, 0.0, 0.0, 0.0, 0.0, 0.0, 0.0, 0.0, 0.0, -3.8, -5.37, -5.06, -6.71, -4.43, -3.79, -4.92, 0.0, 8.05, 8.05, 8.49, 8.49, 5.37, 6.01, 4.0, 0.0, 0.0, 0.0, -3.56, -5.62, -5.49, -0.89, 2.92, 4.78, 2.0, -2.21, -5.85, -6.66, -4.35, -1.5, 0.0, 0.0, 0.0, 0.0, 0.0, 0.0, 1.44, 1.39, 1.64, 1.44, 0.0, 0.0, 0.0, 0.0, 2.63, 2.63, 4.98, 4.98, 7.13, 8.31, 8.58, 8.58, 8.85, 11.8, 14.11, 14.11, 14.11, 13.7, 12.65, 13.03, 12.16, 13.59, 12.16, 11.06, 9.39, 9.66, 7.2, 7.2, 7.0, 6.8, 6.8, 3.58, 3.58, 3.69, 3.69, 3.69, 3.58, 3.58, 3.58, 0.0, 0.0, 0.0, 0.0, 0.0, 0.0, 0.0, 0.0, 0.0, 0.0, 0.0, 0.0, 0.0, 0.0, 0.0, 0.0, -3.25, -3.11, -2.97, -3.8, -3.6, -5.37, -5.06, -4.74, -2.6, -3.79, 0.0, 8.05, 5.37, 8.05, 8.94, 5.69, 6.01, 6.32, 0.0, 0.0, 0.0, 0.0, -0.96, -1.95, -0.95, 0.89, 2.72, 0.95, -1.94, -6.75, -7.49, -7.16, -4.11, -1.25, -1.11, -1.08, -1.0, 0.0, 0.0, 0.0, 0.0, 0.0, 0.0, 0.0, 0.0, 0.0, 0.0, 2.54, 2.54, 2.63, 4.98, 5.15, 5.15, 6.4, 8.58, 8.85, 11.8, 14.11, 14.11, 14.11, 14.11, 12.65, 11.8, 12.16, 13.59, 12.16, 11.06, 9.39, 7.0, 7.2, 7.2, 7.0, 6.8, 6.8, 3.58, 3.58, 3.69, 3.69, 3.69, 3.58, 3.58, 0.0, 0.0, 0.0, 0.0, 0.0, 0.0, 0.0, 0.0, 0.0, 0.0, 0.0, 0.0, 0.0, 0.0, 0.0, -4.1, -3.82, -3.53, -3.25, -3.11, -2.83, -3.6, -3.4, -5.37, -4.74, -2.8, -2.6, -5.36, 0.0, 5.37, 8.05, 6.32, 5.69, 6.01, 0.0, 0.0, 0.0, 0.0, 2.06, 1.47, 0.0, -3.0, -2.89, -1.73, -2.66, -3.75, -4.81, -6.6, -7.11, -5.8, -3.6, -2.06, -0.96, -0.93, -0.93, -0.93, 0.0, 0.0, 0.0, 0.0, 0.0, 0.0, 0.0, 0.0, 2.54, 2.54, 2.63, 2.63, 2.72, 5.15, 6.4, 6.4, 10.43, 13.7, 14.11, 14.11, 14.11, 13.03, 12.16, 11.8, 11.8, 13.59, 12.16, 11.06, 9.39, 7.0, 7.0, 7.2, 7.0, 6.8, 6.6, 3.58, 3.58, 3.58, 3.69, 3.58, 3.58, 3.58, 0.0, 0.0, 0.0, 0.0, 0.0, 0.0, 0.0, 0.0, 0.0, 0.0, 0.0, 0.0, -5.2, -5.6, -6.0, -5.8, -5.6, -5.2, -3.39, -3.11, -2.83, -2.69, -3.4, -3.4, -4.74, -2.8, -4.11, -5.36, 0.0, -0.0, 7.6, 8.49, 8.49, 8.05, 8.49, 0.0, 0.0, 0.0, 0.0, 0.99, 0.97, -0.95, -4.81, -5.83, -5.38, -4.37, -3.01, -3.42, -5.31, -6.51, -4.55, -2.81, -1.13, -0.97, -0.97, -0.97, -0.97, -0.97, -0.97, 0.0, 0.0, 0.0, -1.09, 0.0, 0.0, 0.0, 0.0, 2.63, 2.72, 2.72, 6.4, 6.4, 11.8, 13.7, 14.11, 14.11, 14.11, 12.16, 12.16, 11.8, 11.8, 11.8, 10.75, 9.12, 7.0, 7.0, 7.0, 7.0, 7.0, 6.8, 6.6, 3.58, 3.47, 3.47, 3.58, 4.66, 4.66, 0.0, 0.0, 0.0, 0.0, 0.0, 0.0, 0.0, 0.0, 0.0, 0.0, 0.0, 0.0, 0.0, -6.2, -6.4, -6.4, -6.2, -5.8, -5.4, -4.8, -4.6, -4.0, -3.8, -3.6, -6.8, -6.4, -4.74, -4.43, -5.2, -5.36, 0.0, 0.0, 8.05, 7.6, 8.05, 8.05, 0.0, 0.0, -4.0, 0.0, 0.0, 3.79, 4.93, 0.0, -4.41, -6.16, -4.95, -3.58, -3.09, -4.66, -5.81, -5.28, -3.14, -1.43, -1.2, -1.09, -1.0, -0.97, -0.97, -0.89, -1.0, -1.0, -1.09, -1.0, -1.09, 0.0, 0.0, 0.0, 0.0, 2.63, 2.72, 3.36, 8.58, 11.44, 13.7, 13.7, 13.7, 12.16, 12.16, 11.8, 11.8, 11.8, 11.8, 10.43, 9.12, 6.8, 6.8, 6.8, 7.0, 7.0, 7.0, 6.6, 6.4, 3.47, 3.47, 4.52, 4.66, 4.66, 0.0, 0.0, 0.0, 0.0, 0.0, 0.0, 0.0, 0.0, 0.0, 0.0, 0.0, 0.0, 0.0, -10.75, -11.06, -10.43, -6.4, -6.2, -5.6, -4.8, -4.4, -6.32, -6.01, -5.69, -5.37, -5.37, -5.06, -4.74, -5.2, -7.6, 0.0, 0.0, 0.0, 7.6, 8.49, 5.37, 0.0, -6.01, -6.32, -3.39, 0.0, 3.04, 6.47, 5.79, 2.01, -2.21, -4.9, -5.77, -4.93, -3.25, -3.56, -4.1, -3.44, -1.5, -1.33, -1.16, -1.05, -0.97, -1.91, -1.77, -1.98, -1.98, -1.98, -1.98, -1.98, 0.0, 0.0, 0.0, 0.0, 0.0, 2.63, 6.2, 10.12, 12.79, 12.79, 13.19, 13.19, 11.8, 11.8, 11.8, 11.8, 11.8, 11.8, 10.43, 6.6, 6.8, 6.8, 6.8, 6.8, 6.8, 6.8, 6.6, 6.4, 3.47, 3.36, 3.36, 4.38, 0.0, 0.0, 0.0, 0.0, 0.0, 0.0, 0.0, 0.0, 0.0, 0.0, 0.0, 0.0, 0.0, 0.0, 0.0, -10.75, -10.12, -9.8, -6.0, -5.4, -4.4, -6.64, -6.32, -6.01, -5.69, -7.2, -5.69, -5.37, -5.06, -6.36, -5.81, 0.0, 0.0, 0.0, 0.0, 0.0, 0.0, 0.0, -3.8, -6.01, -3.25, -1.62, 0.0, 0.0, 3.78, 6.78, 5.65, 1.33, -3.53, -2.82, -1.98, -2.06, -3.44, -3.32, -2.82, -2.52, -2.28, -2.08, -1.91, -1.91, -2.61, -2.93, -2.93, -2.93, -2.93, -2.93, 0.0, 0.0, 0.0, 0.0, 0.0, 3.25, 6.2, 9.8, 12.39, 12.79, 12.79, 11.8, 11.8, 11.8, 11.8, 11.8, 11.8, 11.8, 10.43, 6.6, 6.8, 6.8, 6.8, 6.8, 6.8, 6.8, 6.6, 6.4, 3.36, 3.36, 3.25, 0.0, 0.0, 0.0, 0.0, 0.0, 0.0, 0.0, 0.0, 0.0, 0.0, 0.0, 0.0, 0.0, 0.0, 0.0, 0.0, 0.0, -6.0, -5.6, -5.4, -5.0, -6.64, -6.64, -6.32, -6.32, -5.69, -7.2, -7.2, -5.69, -6.32, -6.32, -6.71, 0.0, 0.0, 0.0, 0.0, 0.0, 0.0, 0.0, -3.6, -4.71, -5.63, -4.6, -3.92, -2.37, 0.0, 3.87, 7.96, 7.65, 7.42, 6.02, 1.26, -2.48, -3.85, -4.81, -3.47, -3.47, -4.48, -4.12, -3.82, -3.68, -3.55, -2.81, -2.71, -3.82, -3.82, -3.82, 0.0, 0.0, 0.0, 0.0, 0.0, 3.25, 7.69, 11.53, 12.79, 12.79, 11.44, 11.8, 11.8, 13.19, 13.19, 13.19, 10.43, 10.43, 8.85, 6.6, 6.8, 6.8, 6.8, 6.8, 6.8, 6.8, 6.6, 3.47, 3.36, 3.25, 3.25, 0.0, 0.0, 0.0, 0.0, 0.0, 0.0, 0.0, 0.0, 0.0, 0.0, 0.0, 0.0, 0.0, 0.0, -5.4, -4.24, -6.0, -6.0, -5.4, -5.0, -4.6, -6.32, -6.32, -6.01, -6.01, -7.2, -7.2, -7.21, -5.69, -5.69, -6.32, -6.4, -6.26, 0.0, 8.05, 0.0, 0.0, 0.0, -3.4, -6.32, -4.71, -4.2, -3.25, -2.6, -1.23, 0.0, 1.95, 5.51, 9.85, 11.36, 11.06, 6.79, 0.0, -3.76, -6.51, -6.67, -6.67, -5.99, -5.78, -5.6, -4.47, -3.96, -3.82, -3.55, -4.17, -4.17, -4.17, 0.0, 0.0, 0.0, 0.0, 0.0, 6.0, 9.48, 11.53, 11.9, 11.9, 10.12, 10.12, 13.19, 13.19, 12.27, 12.27, 10.43, 8.18, 6.6, 6.6, 6.6, 6.8, 6.8, 6.8, 6.8, 6.8, 6.6, 3.47, 3.36, 3.36, 3.25, 0.0, 0.0, 0.0, 0.0, 0.0, 0.0, 0.0, 0.0, 0.0, 0.0, 0.0, 0.0, 0.0, -5.0, -5.4, -5.8, -4.1, -5.8, -5.4, -7.9, -6.95, -6.32, -6.01, -5.69, -5.69, -7.63, -7.63, -7.21, -6.32, -5.37, -5.37, -5.06, -6.71, 0.0, 8.49, 0.0, 0.0, 0.0, -3.6, -3.6, -2.69, -2.17, -1.93, 0.0, 0.0, 1.28, 1.08, 4.21, 7.97, 11.17, 12.18, 9.99, 6.79, 2.45, -4.52, -8.83, -8.91, -7.96, -7.54, -7.02, -5.75, -5.57, -5.4, -4.17, -4.17, -4.17, -4.17, 0.0, 0.0, 0.0, 0.0, 3.25, 6.0, 9.48, 9.8, 11.53, 11.9, 10.12, 10.12, 12.27, 12.27, 12.27, 10.43, 8.18, 8.18, 6.6, 6.6, 6.6, 6.8, 6.8, 6.8, 6.8, 6.8, 3.58, 3.47, 3.36, 3.36, 3.25, 0.0, 0.0, 0.0, 0.0, 0.0, 0.0, 0.0, 0.0, 0.0, 0.0, 0.0, 0.0, 0.0, -5.0, -5.4, -5.6, -5.6, -5.6, -8.22, -7.59, -6.95, -6.32, -6.01, -6.7, -6.7, -7.63, -7.21, -7.63, -7.21, -5.06, -5.06, -4.74, -4.43, 0.0, 0.0, 0.0, 0.0, 0.0, 0.0, 0.0, 0.0, 0.0, 0.0, 0.0, 0.0, 0.0, 1.38, 4.81, 6.67, 7.93, 7.63, 9.16, 10.2, 8.8, 3.9, -5.46, -9.48, -9.17, -7.24, -6.97, -6.45, -5.75, -5.35, -5.0, -4.68, -4.68, -4.68, 0.0, 0.0, 0.0, 0.0, 3.14, 6.0, 9.8, 9.8, 9.8, 9.8, 10.12, 10.12, 11.9, 12.27, 10.43, 8.18, 8.18, 8.18, 8.18, 7.93, 7.93, 6.6, 6.8, 6.8, 6.8, 3.69, 3.58, 3.47, 3.36, 3.36, 3.25, 3.25, 0.0, 0.0, 0.0, 0.0, 0.0, 0.0, 0.0, 0.0, 0.0, 0.0, 0.0, 0.0, -5.0, -5.4, -5.6, -5.6, -5.4, -7.9, -7.59, -7.27, -6.64, -7.44, -6.7, -6.32, -6.32, -7.21, -7.21, -7.21, -6.8, -4.74, -2.8, -2.4, -3.48, 0.0, 0.0, 0.0, 0.0, 0.0, 0.0, 0.0, 0.0, 0.0, 0.0, 0.0, 0.0, 3.19, 5.4, 6.08, 4.58, 4.95, 8.17, 10.77, 10.6, 8.1, 4.01, -12.58, -9.62, -8.53, -8.53, -7.56, -6.71, -5.95, -5.35, -5.35, -5.35, -5.35, 0.0, 0.0, 0.0, 3.14, 5.8, 6.0, 9.8, 9.8, 9.8, 10.12, 10.12, 10.12, 10.43, 8.18, 8.18, 8.18, 8.18, 8.18, 8.18, 8.18, 8.18, 8.18, 6.8, 6.8, 6.8, 6.6, 3.58, 3.47, 3.36, 3.25, 3.25, 3.25, 3.14, 0.0, 0.0, 0.0, 0.0, 0.0, 0.0, 0.0, 0.0, 0.0, 0.0, 0.0, -5.2, -5.6, -5.8, -5.6, -5.2, -7.59, -7.27, -6.95, -6.95, -7.81, -7.07, -6.7, -6.32, -5.95, -6.79, -7.21, -7.21, -4.74, -4.11, -2.4, -2.2, 0.0, 0.0, -7.15, -7.6, 0.0, 0.0, 0.0, 0.0, 0.0, 0.0, 0.0, 2.02, 3.39, 4.4, 5.2, 3.6, 4.24, 7.21, 9.64, 7.53, 9.25, -0.0, -10.4, -11.03, -9.66, -9.08, -8.22, -7.15, -6.5, -5.43, -5.52, -5.52, -5.52, 0.0, 0.0, 0.0, 3.14, 5.8, 6.0, 9.8, 9.8, 9.8, 7.93, 7.93, 7.93, 8.18, 8.18, 8.18, 4.66, 4.66, 8.18, 8.18, 8.18, 8.18, 8.18, 6.8, 6.8, 6.6, 6.6, 6.6, 6.4, 3.36, 3.36, 3.25, 3.25, 3.14, 3.96, 0.0, 0.0, 0.0, 0.0, 0.0, 0.0, 0.0, 0.0, 0.0, 0.0, -5.4, -5.6, -5.8, -5.6, -5.2, -7.59, -7.27, -6.95, -6.95, -7.44, -7.07, -6.7, -6.7, -6.32, -5.95, -6.79, -6.79, -5.6, -4.11, -3.79, -3.48, -4.43, -6.26, -6.71, -7.15, -8.05, -8.49, 0.0, 0.0, 0.0, 0.0, 0.0, 2.39, 1.93, 3.39, 2.71, 2.62, 2.45, 4.81, 4.3, 3.45, 4.55, 2.43, -0.0, -0.0, -7.27, -9.3, -7.9, -7.9, -7.44, -6.5, -6.44, -6.44, -6.44, 0.0, 0.0, 0.0, 3.14, 5.8, 5.8, 9.48, 9.8, 7.69, 7.93, 7.93, 8.18, 8.18, 4.66, 4.66, 4.66, 4.66, 4.66, 4.66, 8.18, 8.18, 8.18, 6.6, 6.6, 6.6, 6.6, 6.6, 6.4, 3.36, 3.36, 3.25, 3.25, 4.1, 4.1, 0.0, 0.0, 0.0, 0.0, 0.0, 0.0, 0.0, 0.0, 0.0, 0.0, -5.4, -5.6, -5.8, -5.6, -5.4, -7.9, -7.27, -6.95, -8.18, -7.44, -7.07, -6.7, -6.7, -6.32, -6.32, -6.79, -6.79, -6.36, -5.6, -3.79, -3.79, -3.79, -4.74, -6.26, -6.71, -7.15, -7.6, -8.49, -6.64, 0.0, 0.0, 0.0, 2.39, 2.39, 2.02, 1.58, 1.28, 1.28, 1.38, 0.0, -3.47, -0.0, 8.05, 9.3, 8.49, 8.49, 6.64, -7.27, -8.58, -8.73, -7.59, -6.58, -6.58, -6.58, 0.0, 0.0, 3.04, 3.14, 5.8, 5.8, 6.0, 7.69, 7.69, 7.93, 7.93, 4.66, 4.66, 4.66, 4.66, 4.66, 4.66, 4.66, 4.66, 4.66, 4.66, 4.66, 3.58, 6.6, 6.6, 6.6, 6.4, 6.4, 6.2, 3.25, 3.25, 4.1, 4.1, 4.1, 0.0, 0.0, 0.0, 0.0, 0.0, 0.0, 0.0, 0.0, 0.0, 0.0, -5.2, -5.2, -5.4, -5.4, -5.4, -7.9, -7.59, -5.7, -6.95, -7.81, -7.44, -7.07, -6.7, -6.7, -6.32, -7.21, -6.79, -6.36, -5.94, -4.84, -4.84, -4.11, -3.72, -2.12, 0.0, 0.0, -5.37, -5.69, -6.01, -6.32, 0.0, 0.0, 0.0, 0.0, 0.0, 0.0, 0.0, 1.28, 0.0, -2.92, -5.99, 0.0, 13.59, 11.6, 10.73, 9.39, 8.49, 8.49, -8.4, -7.51, -7.68, -6.95, -6.95, -6.95, 0.0, 0.0, 3.04, 3.04, 5.8, 5.8, 6.0, 6.0, 6.2, 3.36, 4.52, 4.52, 4.66, 4.66, 4.66, 4.66, 4.66, 4.66, 4.66, 4.81, 4.66, 4.66, 4.66, 8.18, 8.18, 7.93, 7.93, 6.4, 6.2, 4.24, 4.24, 4.1, 4.1, 3.96, 3.96, 0.0, 0.0, 0.0, 0.0, 0.0, 0.0, 0.0, 0.0, 0.0, -5.0, -5.0, -5.2, -5.2, -5.2, -7.9, -7.59, -5.7, -8.18, -8.18, -7.81, -7.44, -7.07, -7.07, -6.7, -7.21, -6.79, -6.79, -6.36, -5.21, -5.6, -5.01, -3.22, -1.03, 0.0, 0.0, 0.0, 0.0, 0.0, -8.05, -5.69, 0.0, 0.0, 0.0, 0.0, 0.0, 0.0, 0.0, 0.0, 0.0, -1.46, 0.0, 13.59, 11.88, 11.62, 10.96, 10.41, 9.39, 0.0, -6.01, -7.44, -8.91, -8.91, -8.91, 0.0, 0.0, 3.04, 5.6, 5.6, 5.8, 6.0, 6.2, 3.36, 3.36, 4.38, 4.52, 4.66, 4.66, 4.66, 4.66, 4.66, 4.66, 4.66, 4.81, 4.81, 4.66, 4.66, 8.18, 7.93, 7.93, 7.93, 7.69, 4.38, 4.24, 4.24, 4.1, 4.1, 3.96, 3.96, 0.0, 0.0, 0.0, 0.0, 0.0, 0.0, 0.0, 0.0, 0.0, -5.0, -4.8, -4.8, -4.8, -7.59, -7.59, -7.59, -5.7, -8.18, -8.18, -8.18, -7.81, -7.44, -7.44, -7.07, -7.21, -7.21, -6.79, -5.58, -5.58, -5.36, -5.36, -4.74, -1.98, 0.0, 0.0, 0.0, 0.0, 0.0, 0.0, -6.32, -6.01, -2.97, -2.39, -1.69, -1.45, -1.45, 0.0, 0.0, 2.65, 1.71, 0.0, 8.05, 8.85, 9.08, 7.9, 9.3, 10.18, 8.94, 0.0, -9.39, -8.49, -8.49, -8.49, 0.0, 0.0, 3.04, 5.6, 5.6, 5.6, 5.8, 6.0, 3.25, 3.25, 4.38, 4.52, 4.52, 4.66, 4.66, 4.66, 4.66, 6.6, 6.6, 4.81, 4.81, 4.81, 4.81, 4.66, 4.52, 4.52, 4.52, 4.38, 4.38, 4.24, 4.1, 4.1, 3.96, 3.96, 3.96, 0.0, 0.0, 0.0, 0.0, 0.0, 0.0, 0.0, 0.0, 0.0, -4.8, -4.8, -4.8, -4.8, -7.27, -7.27, -7.27, -5.7, -8.55, -8.18, -8.18, -8.4, -8.4, -8.67, -8.24, -7.81, -7.81, -7.21, -6.79, -4.74, -5.36, -5.36, -4.74, -3.45, -1.03, 0.0, 0.0, 0.0, 0.0, -6.32, -6.32, -6.32, -5.21, -4.4, -3.25, -2.82, -1.45, -1.18, 0.0, 1.77, 4.12, 0.0, 4.3, 6.7, 6.42, 7.27, 7.59, 5.95, 5.7, -0.0, -6.64, -8.4, -8.4, -8.4, 2.45, 2.45, 2.45, 4.65, 5.8, 5.8, 5.8, 3.14, 3.25, 3.25, 4.38, 4.52, 4.52, 4.66, 4.66, 6.6, 6.6, 6.6, 6.6, 6.6, 4.81, 4.81, 4.81, 4.66, 4.52, 4.52, 4.52, 4.38, 4.24, 4.24, 4.1, 3.96, 3.96, 3.96, 3.82, 0.0, 0.0, 0.0, 0.0, 0.0, 0.0, 0.0, 0.0, 0.0, -4.8, -4.8, -4.8, -4.6, -7.27, -7.27, -7.27, -8.55, -8.55, -8.18, -8.18, -8.8, -9.11, -8.67, -8.67, -8.24, -7.81, -7.37, -7.37, -5.95, -5.72, -5.06, -5.06, -4.47, -3.45, -1.73, -2.4, -3.4, -5.69, -5.69, -7.6, -6.32, -5.21, -4.4, -3.25, -3.25, -2.49, -1.14, -2.19, -0.99, 0.0, -3.59, -0.0, 6.0, 5.21, 5.31, 5.36, 3.82, 2.6, -0.0, -2.97, -6.64, -6.64, -6.64, 2.45, 2.45, 4.65, 4.65, 4.81, 4.81, 4.81, 2.63, 3.25, 3.25, 4.38, 4.38, 4.52, 4.66, 4.66, 6.6, 6.6, 6.6, 6.6, 6.8, 6.8, 6.8, 6.8, 6.6, 4.52, 4.52, 4.38, 4.38, 4.24, 4.1, 4.1, 3.96, 3.96, 3.82, 3.82, 0.0, 0.0, 0.0, 0.0, 0.0, 0.0, 0.0, 0.0, -4.8, -4.8, -4.8, -4.8, -4.6, -7.27, -7.27, -7.27, -8.18, -8.55, -8.18, -8.18, -8.8, -9.11, -9.11, -8.67, -8.24, -8.24, -7.81, -7.81, -6.8, -5.72, -5.06, -5.06, -4.47, -4.47, -4.56, -2.4, -3.4, 0.0, -3.4, -3.6, -6.32, -6.64, -5.21, -3.65, -1.62, -1.45, -2.23, -2.19, -3.29, -2.15, -3.2, -16.99, 2.35, 5.0, 4.37, 4.83, 3.11, 2.02, -0.0, -2.97, -5.21, -5.21, -5.21, 2.45, 2.45, 4.65, 4.65, 4.81, 4.81, 2.54, 2.63, 3.25, 3.25, 4.38, 4.38, 4.52, 0.0, 0.0, 0.0, 0.0, 0.0, 0.0, 0.0, 6.8, 6.8, 6.8, 6.8, 6.4, 6.2, 6.2, 4.38, 4.24, 4.1, 4.1, 3.96, 3.96, 3.82, 0.0, 0.0, 0.0, 0.0, 0.0, 0.0, 0.0, 0.0, 0.0, -4.8, -4.8, -4.8, -4.6, -7.27, -7.27, -7.27, -7.27, -8.18, -8.18, -8.18, -8.8, -8.4, -9.11, -9.11, -9.11, -8.67, -8.24, -8.24, -7.81, -6.8, -6.08, -5.06, -5.06, -5.93, -4.87, -3.55, -3.2, 0.0, 0.0, 0.0, 0.0, -2.69, -6.32, -5.21, -2.28, -1.93, -1.45, -2.33, -3.21, -4.28, -4.34, -3.56, -8.43, -10.75, 2.2, 2.83, 2.97, 3.11, -0.0, -0.0, -2.28, -2.97, -2.97, -2.97, 2.45, 2.45, 4.65, 4.65, 4.65, 2.54, 2.54, 2.54, 3.25, 3.25, 3.36, 4.38, 0.0, 0.0, 0.0, 0.0, 0.0, 0.0, 0.0, 0.0, 6.6, 6.8, 6.8, 6.6, 6.4, 6.2, 6.2, 6.0, 6.0, 5.8, 5.8, 5.6, 5.4, 0.0, 0.0, 0.0, 0.0, 0.0, 0.0, 0.0, 0.0, 0.0, 0.0, -4.8, -4.8, -4.8, -4.6, -7.27, -7.27, -7.27, -6.95, -8.18, -8.18, -8.18, -8.8, -8.4, -9.11, -8.67, -9.11, -8.67, -8.67, -8.24, -7.81, -7.2, -6.08, -5.37, -5.93, -5.93, -5.15, -4.42, -3.55, -1.58, 0.0, 3.4, 0.0, 0.0, -3.8, -6.64, -5.21, -4.4, -3.25, -3.77, -3.21, -3.96, -4.08, -3.47, -3.72, -5.99, -13.41, -0.0, -0.0, -0.0, -0.0, -0.0, -1.54, -2.17, -2.17, -2.17, 2.45, 2.45, 2.54, 4.81, 2.54, 2.54, 2.54, 2.54, 2.54, 3.25, 3.25, 0.0, 0.0, 0.0, 0.0, 0.0, 0.0, 0.0, 0.0, 0.0, 0.0, 0.0, 6.6, 6.6, 6.4, 6.2, 6.2, 6.0, 6.0, 5.8, 5.8, 5.6, 0.0, 0.0, 0.0, 0.0, 0.0, 0.0, 0.0, 0.0, 0.0, 0.0, -5.0, -4.8, -4.8, -4.8, -7.59, -7.27, -7.27, -7.27, -8.18, -8.18, -8.18, -8.8, -8.4, -8.4, -9.11, -8.67, -8.67, -8.67, -8.67, -8.24, -8.24, -7.2, -6.44, -5.37, -5.93, -6.28, -6.18, -5.37, -4.16, -3.0, 0.0, 0.0, 0.0, 0.0, -3.8, -6.64, -5.21, -5.9, -4.6, -4.8, -4.15, -3.82, -4.1, -3.42, -2.38, -2.24, -4.38, -10.41, -5.95, -1.93, -1.54, -1.47, -1.75, -2.17, -2.17, -2.17, 2.45, 2.45, 2.54, 4.81, 2.54, 2.54, 2.54, 2.54, 2.54, 3.25, 3.25, 0.0, 0.0, 0.0, 0.0, 0.0, 0.0, 0.0, 0.0, 0.0, 0.0, 0.0, 6.6, 6.6, 6.4, 6.2, 6.2, 6.0, 6.0, 5.8, 5.8, 5.6, 0.0, 0.0, 0.0, 0.0, 0.0, 0.0, 0.0, 0.0, 0.0, 0.0, -5.0, -4.8, -4.8, -4.8, -7.59, -7.27, -7.27, -7.27, -8.18, -8.18, -8.18, -8.8, -8.4, -8.4, -9.11, -8.67, -8.67, -8.67, -8.67, -8.24, -8.24, -7.2, -6.44, -5.37, -5.93, -6.28, -6.18, -5.37, -4.16, -3.0, 0.0, 0.0, 0.0, 0.0, -4.0, -6.64, -5.21, -5.9, -4.6, -4.8, -3.21, -3.06, -2.93, -2.2, -1.23, -1.13, -1.03, -2.32, -6.21, -9.39, -8.91, -6.64, -6.64, -4.2, -4.2, -4.2]}]